M I D A S
Marine Information and Data Acquisition System
Tripno 1668 of the Zeeleeuw from 2009-04-02 06:09:01 to 2009-04-02 15:49:45
Back to CruiseResearch ActivitiesStationsMapUnderway DataData graphs

EquipmentUnitsComment
TimeDGPSUTC
LatitudeDGPSDM.mWGS84
LongitudeDGPSDM.mWGS84
TemperatureSBE03/SBE38deg celciusITS90
ConductivitySBE21S/mITS90
SalinitySBE21 Practical Salinity Units
ChlorophylAChelsea fluorimeterg/lCalibrated in Aceton
Missing or incorrect values are displayed as -999
Sea surface data collected by the RV Zeeleeuw from 2009-04-02 05:58:47 to 2009-04-02 15:58:06
                                                                                    Next 1000 lines
Time Latitude Longitude Temperature Conductivity Salinity ChlorophylA
2009-04-02 05:58:56 51°13.663 2°55.959 -999 0.091605 0.494472 -1.174688
2009-04-02 05:59:02 51°13.663 2°55.959 -999 0.091605 0.494472 -1.174688
2009-04-02 05:59:07 51°13.663 2°55.959 -999 0.091605 0.494472 -1.174688
2009-04-02 05:59:12 51°13.663 2°55.959 -999 0.091605 0.494472 -1.174688
2009-04-02 05:59:17 51°13.663 2°55.959 -999 0.091502 0.493887 -1.139864
2009-04-02 05:59:22 51°13.663 2°55.959 -999 0.091605 0.494472 -1.174688
2009-04-02 05:59:27 51°13.664 2°55.959 -999 0.091502 0.493896 -1.174688
2009-04-02 05:59:32 51°13.663 2°55.959 -999 0.091502 0.493904 -1.174688
2009-04-02 05:59:36 51°13.662 2°55.959 -999 0.091502 0.493904 -1.174688
2009-04-02 05:59:42 51°13.663 2°55.959 -999 0.091502 0.493904 -1.174688
2009-04-02 05:59:47 51°13.663 2°55.959 -999 0.091502 0.493904 -1.174688
2009-04-02 05:59:52 51°13.663 2°55.959 -999 0.091605 0.494489 -1.174688
2009-04-02 05:59:56 51°13.663 2°55.959 -999 0.091502 0.493913 -1.174688
2009-04-02 06:00:02 51°13.663 2°55.959 -999 0.091502 0.493913 -1.174688
2009-04-02 06:00:07 51°13.663 2°55.959 -999 0.091502 0.493913 -1.174688
2009-04-02 06:00:12 51°13.663 2°55.959 -999 0.091502 0.493913 -1.174688
2009-04-02 06:00:16 51°13.663 2°55.959 -999 0.091502 0.493913 -1.174688
2009-04-02 06:00:22 51°13.663 2°55.959 -999 0.091502 0.493913 -1.174688
2009-04-02 06:00:27 51°13.663 2°55.959 -999 0.091502 0.493921 -1.174688
2009-04-02 06:00:32 51°13.662 2°55.959 -999 0.091502 0.493921 -1.174688
2009-04-02 06:00:37 51°13.662 2°55.959 -999 0.091502 0.493921 -1.174688
2009-04-02 06:00:42 51°13.662 2°55.959 -999 0.091502 0.493921 -1.174688
2009-04-02 06:00:47 51°13.662 2°55.959 -999 0.091502 0.493921 -1.174688
2009-04-02 06:00:52 51°13.662 2°55.959 -999 0.091502 0.493921 -1.174688
2009-04-02 06:00:56 51°13.663 2°55.959 -999 0.091502 0.49393 -1.174688
2009-04-02 06:01:01 51°13.663 2°55.959 -999 0.091502 0.49393 -1.174688
2009-04-02 06:01:07 51°13.663 2°55.959 -999 0.091502 0.49393 -1.174688
2009-04-02 06:01:12 51°13.663 2°55.959 -999 0.091502 0.49393 -1.174688
2009-04-02 06:01:17 51°13.663 2°55.959 -999 0.091502 0.49393 -1.174688
2009-04-02 06:01:22 51°13.663 2°55.959 -999 0.091502 0.49393 -1.174688
2009-04-02 06:01:27 51°13.664 2°55.959 -999 0.091502 0.49393 -1.174688
2009-04-02 06:01:32 51°13.665 2°55.959 -999 0.091502 0.49393 -1.174688
2009-04-02 06:01:37 51°13.665 2°55.959 -999 0.091502 0.49393 -1.174688
2009-04-02 06:01:42 51°13.665 2°55.959 -999 0.091502 0.49393 -1.174688
2009-04-02 06:01:47 51°13.665 2°55.959 -999 0.091502 0.49393 -1.174688
2009-04-02 06:01:52 51°13.665 2°55.959 -999 0.091502 0.49393 -1.174688
2009-04-02 06:01:57 51°13.665 2°55.959 -999 0.091502 0.493938 -1.174688
2009-04-02 06:02:02 51°13.663 2°55.959 -999 0.091502 0.493938 -1.174688
2009-04-02 06:02:07 51°13.663 2°55.959 -999 0.091502 0.493938 -1.174688
2009-04-02 06:02:12 51°13.663 2°55.959 -999 0.091502 0.493938 -1.174688
2009-04-02 06:02:17 51°13.662 2°55.959 -999 0.091502 0.493938 -1.174688
2009-04-02 06:02:22 51°13.662 2°55.959 -999 0.091502 0.493947 -1.174688
2009-04-02 06:02:27 51°13.662 2°55.959 -999 0.091502 0.493947 -1.174688
2009-04-02 06:02:32 51°13.662 2°55.959 -999 0.091502 0.493956 -1.174688
2009-04-02 06:02:37 51°13.662 2°55.959 -999 0.091502 0.493947 -1.174688
2009-04-02 06:02:42 51°13.662 2°55.959 -999 0.091502 0.493947 -1.174688
2009-04-02 06:02:47 51°13.662 2°55.959 -999 0.091502 0.493956 -1.174688
2009-04-02 06:02:52 51°13.662 2°55.959 -999 0.091502 0.493956 -1.174688
2009-04-02 06:02:57 51°13.662 2°55.959 -999 0.091502 0.493964 -1.174688
2009-04-02 06:03:02 51°13.662 2°55.959 -999 0.091502 0.493964 -1.174688
2009-04-02 06:03:06 51°13.662 2°55.959 -999 0.091502 0.493964 -1.174688
2009-04-02 06:03:12 51°13.662 2°55.959 -999 0.091502 0.493964 -1.174688
2009-04-02 06:03:17 51°13.662 2°55.959 -999 0.091502 0.493964 -1.174688
2009-04-02 06:03:22 51°13.662 2°55.959 -999 0.091502 0.493964 -1.174688
2009-04-02 06:03:26 51°13.662 2°55.959 -999 0.091502 0.493973 -1.174688
2009-04-02 06:03:32 51°13.662 2°55.959 -999 0.091502 0.493973 -1.174688
2009-04-02 06:03:37 51°13.662 2°55.959 -999 0.091502 0.493973 -1.174688
2009-04-02 06:03:42 51°13.662 2°55.959 -999 0.091502 0.493973 -1.174688
2009-04-02 06:03:46 51°13.662 2°55.959 -999 0.091502 0.493973 -1.174688
2009-04-02 06:03:52 51°13.662 2°55.959 -999 0.091502 0.493981 -1.174688
2009-04-02 06:03:57 51°13.662 2°55.959 -999 0.091502 0.493981 -1.174688
2009-04-02 06:04:02 51°13.662 2°55.959 -999 0.091502 0.493981 -1.174688
2009-04-02 06:04:07 51°13.662 2°55.959 -999 0.091502 0.493981 -1.174688
2009-04-02 06:04:12 51°13.662 2°55.959 -999 0.091502 0.493981 -1.174688
2009-04-02 06:04:17 51°13.662 2°55.959 -999 0.091502 0.493981 -1.174688
2009-04-02 06:04:21 51°13.662 2°55.959 -999 0.091502 0.493981 -1.174688
2009-04-02 06:04:27 51°13.662 2°55.959 -999 0.091502 0.493981 -1.174688
2009-04-02 06:04:32 51°13.662 2°55.959 -999 0.091502 0.493981 -1.174688
2009-04-02 06:04:37 51°13.662 2°55.959 -999 0.091502 0.49399 -1.174688
2009-04-02 06:04:42 51°13.662 2°55.959 -999 0.091502 0.49399 -1.174688
2009-04-02 06:04:47 51°13.662 2°55.959 -999 0.091502 0.49399 -1.174688
2009-04-02 06:04:52 51°13.662 2°55.958 -999 0.091502 0.49399 -1.174688
2009-04-02 06:04:57 51°13.662 2°55.959 -999 0.091502 0.493998 -1.174688
2009-04-02 06:05:02 51°13.662 2°55.959 -999 0.091502 0.493998 -1.174688
2009-04-02 06:05:07 51°13.662 2°55.959 -999 0.091502 0.493998 -1.174688
2009-04-02 06:05:12 51°13.662 2°55.959 -999 0.091502 0.493998 -1.174688
2009-04-02 06:05:17 51°13.662 2°55.959 -999 0.091502 0.493998 -1.174688
2009-04-02 06:05:22 51°13.663 2°55.959 -999 0.091502 0.493998 -1.174688
2009-04-02 06:05:27 51°13.663 2°55.96 -999 0.091502 0.493998 -1.174688
2009-04-02 06:05:32 51°13.663 2°55.96 -999 0.091502 0.494007 -1.174688
2009-04-02 06:05:37 51°13.663 2°55.96 -999 0.091502 0.494015 -1.174688
2009-04-02 06:05:42 51°13.663 2°55.96 -999 0.091502 0.494015 -1.174688
2009-04-02 06:05:47 51°13.663 2°55.96 -999 0.091502 0.494015 -1.174688
2009-04-02 06:05:52 51°13.663 2°55.96 -999 0.091502 0.494015 -1.174688
2009-04-02 06:05:57 51°13.663 2°55.96 -999 0.091502 0.494015 -1.174688
2009-04-02 06:06:01 51°13.663 2°55.96 -999 0.091502 0.494015 -1.174688
2009-04-02 06:06:07 51°13.663 2°55.96 -999 0.091502 0.494015 -1.174688
2009-04-02 06:06:12 51°13.663 2°55.96 -999 0.091502 0.494015 -1.174688
2009-04-02 06:06:17 51°13.663 2°55.96 -999 0.091502 0.494024 -1.174688
2009-04-02 06:06:22 51°13.663 2°55.96 -999 0.091502 0.494024 -1.174688
2009-04-02 06:06:27 51°13.662 2°55.96 -999 0.091502 0.494024 -1.174688
2009-04-02 06:06:32 51°13.662 2°55.96 -999 0.091502 0.494024 -1.174688
2009-04-02 06:06:37 51°13.662 2°55.959 -999 0.091502 0.494024 -1.174688
2009-04-02 06:06:42 51°13.662 2°55.959 -999 0.091502 0.494024 -1.174688
2009-04-02 06:06:47 51°13.662 2°55.96 -999 0.091502 0.494024 -1.174688
2009-04-02 06:06:52 51°13.662 2°55.959 -999 0.091502 0.494033 -1.174688
2009-04-02 06:06:57 51°13.662 2°55.959 -999 0.091502 0.494033 -1.174688
2009-04-02 06:07:02 51°13.662 2°55.959 -999 0.091502 0.494033 -1.174688
2009-04-02 06:07:07 51°13.662 2°55.959 -999 0.091502 0.494033 -1.174688
2009-04-02 06:07:12 51°13.662 2°55.959 -999 0.091502 0.494033 -1.174688
2009-04-02 06:07:17 51°13.662 2°55.959 -999 0.091502 0.494033 -1.174688
2009-04-02 06:07:22 51°13.662 2°55.959 -999 0.091502 0.494033 -1.174688
2009-04-02 06:07:27 51°13.662 2°55.959 -999 0.091502 0.494033 -1.174688
2009-04-02 06:07:32 51°13.661 2°55.959 -999 0.091502 0.494033 -1.174688
2009-04-02 06:07:37 51°13.661 2°55.958 -999 0.091502 0.49405 -1.174688
2009-04-02 06:07:42 51°13.661 2°55.957 -999 0.091502 0.49405 -1.174688
2009-04-02 06:07:47 51°13.662 2°55.955 -999 0.091502 0.49405 -1.174688
2009-04-02 06:07:52 51°13.663 2°55.952 -999 0.091502 0.49405 -1.174688
2009-04-02 06:07:57 51°13.664 2°55.948 -999 0.091502 0.49405 -1.174688
2009-04-02 06:08:02 51°13.665 2°55.943 -999 0.091502 0.494058 -1.209513
2009-04-02 06:08:08 51°13.667 2°55.937 -999 0.091502 0.494058 -1.174688
2009-04-02 06:08:13 51°13.668 2°55.931 -999 0.091502 0.494058 -1.174688
2009-04-02 06:08:19 51°13.67 2°55.924 -999 0.091502 0.494058 -1.174688
2009-04-02 06:08:26 51°13.673 2°55.915 -999 0.091502 0.494058 -1.174688
2009-04-02 06:08:31 51°13.674 2°55.908 -999 0.091502 0.494058 -1.174688
2009-04-02 06:08:36 51°13.676 2°55.901 -999 0.091502 0.494058 -1.174688
2009-04-02 06:08:41 51°13.677 2°55.894 -999 0.091502 0.494058 -1.174688
2009-04-02 06:08:46 51°13.679 2°55.886 -999 0.091502 0.494058 -1.174688
2009-04-02 06:08:50 51°13.681 2°55.88 -999 0.091502 0.494058 -1.174688
2009-04-02 06:08:56 51°13.683 2°55.871 -999 0.091502 0.494058 -1.174688
2009-04-02 06:09:01 51°13.686 2°55.863 -999 0.091502 0.494067 -1.174688
2009-04-02 06:09:06 51°13.688 2°55.856 -999 0.091502 0.494075 -1.174688
2009-04-02 06:09:10 51°13.689 2°55.85 -999 0.091502 0.494075 -1.174688
2009-04-02 06:09:15 51°13.691 2°55.843 -999 0.091502 0.494075 -1.174688
2009-04-02 06:09:21 51°13.692 2°55.836 -999 0.091502 0.494075 -1.174688
2009-04-02 06:09:26 51°13.694 2°55.829 -999 0.091502 0.494075 -1.174688
2009-04-02 06:09:30 51°13.695 2°55.825 -999 0.091502 0.494075 -1.174688
2009-04-02 06:09:35 51°13.697 2°55.819 -999 0.091502 0.494067 -1.174688
2009-04-02 06:09:40 51°13.698 2°55.813 -999 0.091502 0.494067 -1.174688
2009-04-02 06:09:45 51°13.7 2°55.807 -999 0.091502 0.494067 -1.174688
2009-04-02 06:09:50 51°13.702 2°55.802 -999 0.091502 0.494075 -1.174688
2009-04-02 06:09:54 51°13.704 2°55.797 -999 0.091502 0.494075 -1.174688
2009-04-02 06:09:59 51°13.706 2°55.792 -999 0.091502 0.494075 -1.174688
2009-04-02 06:10:04 51°13.708 2°55.786 -999 0.091502 0.494084 -1.174688
2009-04-02 06:10:10 51°13.71 2°55.78 -999 0.091502 0.494092 -1.174688
2009-04-02 06:10:15 51°13.712 2°55.775 -999 0.091502 0.494092 -1.174688
2009-04-02 06:10:20 51°13.714 2°55.769 -999 0.091502 0.494101 -1.174688
2009-04-02 06:10:26 51°13.717 2°55.763 -999 0.091502 0.494101 -1.174688
2009-04-02 06:10:30 51°13.72 2°55.759 -999 0.091502 0.49411 -1.174688
2009-04-02 06:10:35 51°13.723 2°55.753 -999 0.091502 0.49411 -1.174688
2009-04-02 06:10:41 51°13.727 2°55.747 -999 0.091502 0.49411 -1.174688
2009-04-02 06:10:46 51°13.731 2°55.742 -999 0.091502 0.49411 -1.174688
2009-04-02 06:10:51 51°13.734 2°55.737 -999 0.091502 0.49411 -1.174688
2009-04-02 06:10:56 51°13.738 2°55.732 -999 0.091502 0.49411 -1.174688
2009-04-02 06:11:01 51°13.741 2°55.728 -999 0.091502 0.494118 -1.174688
2009-04-02 06:11:06 51°13.743 2°55.726 -999 0.091502 0.49411 -1.174688
2009-04-02 06:11:10 51°13.743 2°55.725 -999 0.091502 0.494092 -1.174688
2009-04-02 06:11:16 51°13.742 2°55.725 -999 0.091502 0.494092 -1.174688
2009-04-02 06:11:21 51°13.741 2°55.725 -999 0.091502 0.494084 -1.174688
2009-04-02 06:11:26 51°13.74 2°55.725 -999 0.091502 0.49411 -1.209513
2009-04-02 06:11:30 51°13.74 2°55.725 -999 0.091502 0.49411 -1.174688
2009-04-02 06:11:35 51°13.741 2°55.724 -999 0.091502 0.494127 -1.174688
2009-04-02 06:11:41 51°13.742 2°55.721 -999 0.091502 0.494135 -1.209513
2009-04-02 06:11:46 51°13.744 2°55.719 -999 0.091502 0.494135 -1.209513
2009-04-02 06:11:50 51°13.746 2°55.717 -999 0.091502 0.494135 -1.174688
2009-04-02 06:11:55 51°13.748 2°55.713 -999 0.091502 0.494144 -1.174688
2009-04-02 06:12:01 51°13.752 2°55.71 -999 0.091502 0.494144 -1.209513
2009-04-02 06:12:06 51°13.755 2°55.706 -999 0.091399 0.493584 -1.174688
2009-04-02 06:12:10 51°13.757 2°55.704 -999 0.091502 0.494144 -1.174688
2009-04-02 06:12:15 51°13.761 2°55.7 -999 0.091502 0.494144 -1.174688
2009-04-02 06:12:21 51°13.766 2°55.696 -999 0.091399 0.493575 -1.174688
2009-04-02 06:12:26 51°13.77 2°55.692 -999 0.091502 0.494135 -1.209513
2009-04-02 06:12:31 51°13.775 2°55.688 -999 0.091399 0.493558 -1.174688
2009-04-02 06:12:35 51°13.779 2°55.685 -999 0.091399 0.493558 -1.209513
2009-04-02 06:12:41 51°13.784 2°55.68 -999 0.091399 0.493567 -1.209513
2009-04-02 06:12:46 51°13.789 2°55.676 -999 0.091399 0.493567 -1.209513
2009-04-02 06:12:51 51°13.794 2°55.672 -999 0.091399 0.493567 -1.209513
2009-04-02 06:12:56 51°13.8 2°55.668 -999 0.091399 0.493567 -1.209513
2009-04-02 06:13:01 51°13.805 2°55.664 -999 0.091399 0.493575 -1.209513
2009-04-02 06:13:06 51°13.811 2°55.661 -999 0.091399 0.493584 -1.209513
2009-04-02 06:13:11 51°13.818 2°55.658 -999 0.091399 0.493601 -1.174688
2009-04-02 06:13:16 51°13.824 2°55.655 -999 0.091399 0.493601 -1.174688
2009-04-02 06:13:21 51°13.83 2°55.652 -999 0.091399 0.493601 -1.209513
2009-04-02 06:13:26 51°13.837 2°55.649 -999 0.091399 0.49361 -1.209513
2009-04-02 06:13:30 51°13.842 2°55.646 -999 0.091399 0.493601 -1.209513
2009-04-02 06:13:36 51°13.85 2°55.643 -999 0.091399 0.493593 -1.174688
2009-04-02 06:13:41 51°13.856 2°55.64 -999 0.091399 0.493584 -1.209513
2009-04-02 06:13:46 51°13.862 2°55.637 -999 0.091399 0.493584 -1.209513
2009-04-02 06:13:50 51°13.867 2°55.635 -999 0.091399 0.493593 -1.209513
2009-04-02 06:13:55 51°13.873 2°55.632 -999 0.091399 0.493601 -1.209513
2009-04-02 06:14:01 51°13.88 2°55.63 -999 0.091399 0.49361 -1.209513
2009-04-02 06:14:06 51°13.886 2°55.629 -999 0.091399 0.49361 -1.209513
2009-04-02 06:14:10 51°13.89 2°55.628 -999 0.091399 0.49361 -1.174688
2009-04-02 06:14:15 51°13.895 2°55.627 -999 0.091399 0.49361 -1.174688
2009-04-02 06:14:21 51°13.902 2°55.627 -999 0.091399 0.49361 -1.174688
2009-04-02 06:14:26 51°13.906 2°55.627 -999 0.091399 0.493618 -1.209513
2009-04-02 06:14:31 51°13.911 2°55.627 -999 0.091399 0.493618 -1.209513
2009-04-02 06:14:35 51°13.914 2°55.627 -999 0.091399 0.493618 -1.174688
2009-04-02 06:14:41 51°13.919 2°55.628 -999 0.091399 0.493618 -1.209513
2009-04-02 06:14:46 51°13.923 2°55.629 -999 0.091399 0.493618 -1.209513
2009-04-02 06:14:50 51°13.926 2°55.63 -999 0.091399 0.493627 -1.209513
2009-04-02 06:14:55 51°13.929 2°55.631 -999 0.091399 0.493627 -1.209513
2009-04-02 06:15:00 51°13.932 2°55.632 -999 0.091399 0.493635 -1.174688
2009-04-02 06:15:05 51°13.935 2°55.633 -999 0.091399 0.493627 -1.174688
2009-04-02 06:15:10 51°13.937 2°55.634 -999 0.091399 0.493627 -1.209513
2009-04-02 06:15:15 51°13.939 2°55.634 -999 0.091399 0.493627 -1.209513
2009-04-02 06:15:20 51°13.94 2°55.634 -999 0.091399 0.493627 -1.209513
2009-04-02 06:15:24 51°13.94 2°55.634 -999 0.091399 0.493627 -1.209513
2009-04-02 06:15:30 51°13.94 2°55.633 -999 0.091399 0.493627 -1.174688
2009-04-02 06:15:34 51°13.94 2°55.631 -999 0.091399 0.493635 -1.174688
2009-04-02 06:15:39 51°13.94 2°55.629 -999 0.091399 0.493635 -1.209513
2009-04-02 06:15:44 51°13.939 2°55.627 -999 0.091399 0.493635 -1.209513
2009-04-02 06:15:49 51°13.939 2°55.624 -999 0.091399 0.493635 -1.209513
2009-04-02 06:15:54 51°13.939 2°55.62 -999 0.091399 0.493635 -1.209513
2009-04-02 06:15:58 51°13.939 2°55.616 -999 0.091399 0.493635 -1.209513
2009-04-02 06:16:03 51°13.938 2°55.611 -999 0.091399 0.493635 -1.244337
2009-04-02 06:16:08 51°13.939 2°55.606 -999 0.091399 0.493635 -1.244337
2009-04-02 06:16:13 51°13.939 2°55.601 -999 0.091399 0.493635 -1.244337
2009-04-02 06:16:18 51°13.94 2°55.595 -999 0.091399 0.493635 -1.209513
2009-04-02 06:16:23 51°13.942 2°55.589 -999 0.091399 0.493644 -1.209513
2009-04-02 06:16:27 51°13.943 2°55.584 -999 0.091399 0.493652 -1.209513
2009-04-02 06:16:32 51°13.945 2°55.578 -999 0.091399 0.493652 -1.244337
2009-04-02 06:16:37 51°13.948 2°55.572 -999 0.091399 0.493652 -1.244337
2009-04-02 06:16:42 51°13.951 2°55.567 -999 0.091399 0.493652 -1.244337
2009-04-02 06:16:46 51°13.954 2°55.562 -999 0.091399 0.493652 -1.244337
2009-04-02 06:16:52 51°13.958 2°55.555 -999 0.091399 0.493661 -1.244337
2009-04-02 06:16:57 51°13.962 2°55.55 -999 0.091399 0.493652 -1.209513
2009-04-02 06:17:02 51°13.967 2°55.545 -999 0.091399 0.493644 -1.244337
2009-04-02 06:17:07 51°13.973 2°55.541 -999 0.091399 0.493652 -1.209513
2009-04-02 06:17:11 51°13.977 2°55.538 -999 0.091399 0.493652 -1.209513
2009-04-02 06:17:17 51°13.984 2°55.533 -999 0.091399 0.493652 -1.244337
2009-04-02 06:17:22 51°13.99 2°55.529 -999 0.091399 0.493661 -1.209513
2009-04-02 06:17:27 51°13.996 2°55.524 -999 0.091399 0.49367 -1.244337
2009-04-02 06:17:31 51°14.001 2°55.52 -999 0.091399 0.493678 -1.209513
2009-04-02 06:17:37 51°14.009 2°55.514 -999 0.091399 0.493695 -1.209513
2009-04-02 06:17:42 51°14.016 2°55.508 -999 0.091399 0.493695 -1.209513
2009-04-02 06:17:47 51°14.024 2°55.502 -999 0.091399 0.493704 -1.209513
2009-04-02 06:17:52 51°14.031 2°55.496 -999 0.091399 0.493712 -1.209513
2009-04-02 06:17:57 51°14.039 2°55.489 -999 0.091399 0.493712 -1.209513
2009-04-02 06:18:02 51°14.047 2°55.482 -999 0.091399 0.493721 -1.209513
2009-04-02 06:18:07 51°14.056 2°55.475 -999 0.091399 0.493721 -1.209513
2009-04-02 06:18:12 51°14.065 2°55.467 -999 0.091399 0.493721 -1.209513
2009-04-02 06:18:17 51°14.073 2°55.459 -999 0.091399 0.493712 -1.209513
2009-04-02 06:18:22 51°14.082 2°55.451 -999 0.091399 0.493712 -1.209513
2009-04-02 06:18:26 51°14.09 2°55.445 -999 0.091399 0.493712 -1.209513
2009-04-02 06:18:32 51°14.101 2°55.434 -999 0.091399 0.493721 -1.209513
2009-04-02 06:18:37 51°14.111 2°55.426 -999 0.091399 0.493721 -1.244337
2009-04-02 06:18:42 51°14.12 2°55.417 -999 0.091399 0.493721 -1.244337
2009-04-02 06:18:46 51°14.128 2°55.41 -999 0.091399 0.493738 -1.209513
2009-04-02 06:18:52 51°14.14 2°55.398 -999 0.091399 0.493729 -1.209513
2009-04-02 06:18:57 51°14.15 2°55.389 -999 0.091399 0.493738 -1.209513
2009-04-02 06:19:02 51°14.16 2°55.38 -999 0.091399 0.493747 -1.209513
2009-04-02 06:19:07 51°14.171 2°55.37 -999 0.091399 0.493747 -1.209513
2009-04-02 06:19:12 51°14.181 2°55.36 -999 0.091399 0.493747 -1.209513
2009-04-02 06:19:17 51°14.191 2°55.349 -999 0.091399 0.493755 -1.244337
2009-04-02 06:19:22 51°14.201 2°55.338 -999 0.091399 0.493764 -1.209513
2009-04-02 06:19:26 51°14.209 2°55.329 -999 0.091399 0.493764 -1.244337
2009-04-02 06:19:32 51°14.22 2°55.315 -999 0.091399 0.493772 -1.209513
2009-04-02 06:19:37 51°14.23 2°55.302 -999 0.091399 0.493772 -1.209513
2009-04-02 06:19:42 51°14.239 2°55.289 -999 0.091399 0.493772 -1.209513
2009-04-02 06:19:46 51°14.247 2°55.278 -999 0.091399 0.493772 -1.209513
2009-04-02 06:19:52 51°14.257 2°55.26 -999 0.091399 0.493789 -1.209513
2009-04-02 06:19:57 51°14.265 2°55.245 -999 0.091399 0.493781 -1.209513
2009-04-02 06:20:02 51°14.273 2°55.229 -999 0.091399 0.493789 -1.209513
2009-04-02 06:20:06 51°14.279 2°55.216 -999 0.091399 0.493798 -1.209513
2009-04-02 06:20:12 51°14.289 2°55.196 -999 0.091399 0.493798 -1.209513
2009-04-02 06:20:17 51°14.296 2°55.179 -999 0.091399 0.493789 -1.209513
2009-04-02 06:20:22 51°14.304 2°55.162 -999 0.091399 0.493789 -1.209513
2009-04-02 06:20:26 51°14.31 2°55.149 -999 0.091399 0.493789 -1.209513
2009-04-02 06:20:32 51°14.32 2°55.128 -999 0.091399 0.493781 -1.209513
2009-04-02 06:20:37 51°14.328 2°55.111 -999 0.091399 0.493789 -1.209513
2009-04-02 06:20:42 51°14.337 2°55.094 -999 0.091399 0.493789 -1.209513
2009-04-02 06:20:46 51°14.343 2°55.08 -999 0.091399 0.493789 -1.209513
2009-04-02 06:20:52 51°14.353 2°55.059 -999 0.091399 0.493781 -1.244337
2009-04-02 06:20:57 51°14.362 2°55.042 -999 0.091399 0.493798 -1.209513
2009-04-02 06:21:02 51°14.37 2°55.024 -999 0.091399 0.493798 -1.209513
2009-04-02 06:21:06 51°14.376 2°55.01 -999 0.091399 0.493806 -1.209513
2009-04-02 06:21:12 51°14.386 2°54.987 -999 0.091399 0.493806 -1.209513
2009-04-02 06:21:17 51°14.393 2°54.968 -999 0.091399 0.493815 -1.209513
2009-04-02 06:21:22 51°14.401 2°54.949 -999 0.091399 0.493815 -1.209513
2009-04-02 06:21:27 51°14.408 2°54.929 -999 0.091399 0.493815 -1.209513
2009-04-02 06:21:32 51°14.415 2°54.909 -999 0.091399 0.493824 -1.209513
2009-04-02 06:21:37 51°14.422 2°54.889 -999 0.091399 0.493824 -1.244337
2009-04-02 06:21:42 51°14.43 2°54.869 -999 0.091399 0.493824 -1.244337
2009-04-02 06:21:46 51°14.435 2°54.854 -999 0.091399 0.493824 -1.209513
2009-04-02 06:21:52 51°14.444 2°54.83 -999 0.091399 0.493832 -1.244337
2009-04-02 06:21:57 51°14.451 2°54.81 -999 0.091399 0.493824 -1.209513
2009-04-02 06:22:02 51°14.458 2°54.79 -999 0.091399 0.493832 -1.209513
2009-04-02 06:22:06 51°14.465 2°54.774 -999 0.091399 0.493824 -1.209513
2009-04-02 06:22:12 51°14.474 2°54.751 -999 0.091399 0.493824 -1.209513
2009-04-02 06:22:17 51°14.481 2°54.731 -999 0.091399 0.493832 -1.209513
2009-04-02 06:22:22 51°14.489 2°54.711 -999 0.091399 0.493832 -1.209513
2009-04-02 06:22:26 51°14.494 2°54.695 -999 0.091399 0.493824 -1.209513
2009-04-02 06:22:32 51°14.503 2°54.67 -999 0.091399 0.493824 -1.244337
2009-04-02 06:22:37 51°14.511 2°54.649 -999 0.091296 0.493255 -1.209513
2009-04-02 06:22:42 51°14.519 2°54.629 -999 0.091296 0.493255 -1.209513
2009-04-02 06:22:46 51°14.525 2°54.612 -999 0.091399 0.493824 -1.209513
2009-04-02 06:22:52 51°14.535 2°54.586 -999 0.091296 0.493264 -1.209513
2009-04-02 06:22:57 51°14.543 2°54.565 -999 0.091296 0.493264 -1.244337
2009-04-02 06:23:02 51°14.551 2°54.543 -999 0.091296 0.493272 -1.209513
2009-04-02 06:23:06 51°14.558 2°54.526 -999 0.091296 0.493272 -1.244337
2009-04-02 06:23:12 51°14.567 2°54.5 -999 0.091296 0.493272 -1.244337
2009-04-02 06:23:17 51°14.575 2°54.477 -999 0.091296 0.493281 -1.244337
2009-04-02 06:23:22 51°14.583 2°54.455 -999 0.091296 0.493195 0.53169
2009-04-02 06:23:26 51°14.589 2°54.437 -999 0.100353 0.544515 1.889828
2009-04-02 06:23:32 51°14.6 2°54.411 -999 0.257729 1.460879 0.845107
2009-04-02 06:23:37 51°14.607 2°54.389 -999 0.782232 4.761469 21.460946
2009-04-02 06:23:42 51°14.616 2°54.366 -999 0.782232 4.761469 21.460946
2009-04-02 06:23:46 51°14.622 2°54.348 -999 1.696102 11.410188 22.157428
2009-04-02 06:23:52 51°14.632 2°54.321 -999 1.788185 12.506088 14.739904
2009-04-02 06:23:57 51°14.64 2°54.299 -999 1.910335 13.97334 26.614906
2009-04-02 06:24:02 51°14.648 2°54.276 -999 2.830011 22.286497 29.017766
2009-04-02 06:24:06 51°14.655 2°54.258 -999 3.206646 26.445231 25.953249
2009-04-02 06:24:12 51°14.665 2°54.231 -999 3.206646 26.445231 25.953249
2009-04-02 06:24:17 51°14.673 2°54.209 -999 3.235336 27.350029 24.420991
2009-04-02 06:24:22 51°14.682 2°54.187 -999 3.230375 27.950248 23.828982
2009-04-02 06:24:27 51°14.691 2°54.165 -999 3.228 28.385246 23.202149
2009-04-02 06:24:32 51°14.699 2°54.142 -999 3.213094 28.575577 22.644964
2009-04-02 06:24:37 51°14.708 2°54.12 -999 3.210405 28.760719 22.401196
2009-04-02 06:24:42 51°14.717 2°54.098 -999 3.210405 28.760719 22.401196
2009-04-02 06:24:46 51°14.724 2°54.08 -999 3.210926 28.978023 22.122603
2009-04-02 06:24:52 51°14.735 2°54.054 -999 3.209789 29.133367 22.122603
2009-04-02 06:24:57 51°14.743 2°54.031 -999 3.215796 29.346613 22.192252
2009-04-02 06:25:02 51°14.752 2°54.009 -999 3.220457 29.512839 22.122603
2009-04-02 06:25:06 51°14.759 2°53.992 -999 3.220562 29.589923 21.669891
2009-04-02 06:25:12 51°14.77 2°53.966 -999 3.220562 29.589923 21.669891
2009-04-02 06:25:17 51°14.778 2°53.944 -999 3.223151 29.668715 21.739539
2009-04-02 06:25:22 51°14.787 2°53.922 -999 3.226879 29.776799 21.704715
2009-04-02 06:25:27 51°14.796 2°53.9 -999 3.230504 29.867644 21.495771
2009-04-02 06:25:32 51°14.805 2°53.878 -999 3.232058 29.945233 21.391298
2009-04-02 06:25:37 51°14.812 2°53.855 -999 3.233819 30.007656 21.112706
2009-04-02 06:25:42 51°14.82 2°53.833 -999 3.233819 30.007656 21.112706
2009-04-02 06:25:47 51°14.829 2°53.81 -999 3.235993 30.053784 20.520697
2009-04-02 06:25:52 51°14.836 2°53.787 -999 3.238686 30.102238 20.137632
2009-04-02 06:25:57 51°14.844 2°53.764 -999 3.243035 30.188691 19.615272
2009-04-02 06:26:02 51°14.851 2°53.741 -999 3.241897 30.205582 19.336679
2009-04-02 06:26:07 51°14.858 2°53.717 -999 3.246971 30.290556 19.023263
2009-04-02 06:26:12 51°14.865 2°53.694 -999 3.246971 30.290556 19.023263
2009-04-02 06:26:17 51°14.871 2°53.671 -999 3.248938 30.322557 18.709846
2009-04-02 06:26:22 51°14.879 2°53.648 -999 3.251424 30.363841 18.640198
2009-04-02 06:26:27 51°14.885 2°53.624 -999 3.253391 30.394342 18.39643
2009-04-02 06:26:32 51°14.892 2°53.6 -999 3.255566 30.429358 18.500902
2009-04-02 06:26:37 51°14.899 2°53.577 -999 3.257016 30.454549 18.361606
2009-04-02 06:26:42 51°14.905 2°53.553 -999 3.257016 30.454549 18.361606
2009-04-02 06:26:47 51°14.912 2°53.53 -999 3.25888 30.486402 18.222309
2009-04-02 06:26:52 51°14.918 2°53.505 -999 3.258569 30.483969 18.326782
2009-04-02 06:26:57 51°14.925 2°53.481 -999 3.259398 30.500404 18.431254
2009-04-02 06:27:02 51°14.932 2°53.458 -999 3.258052 30.503737 18.675022
2009-04-02 06:27:07 51°14.938 2°53.434 -999 3.257845 30.518892 18.849142
2009-04-02 06:27:12 51°14.945 2°53.41 -999 3.257845 30.518892 18.849142
2009-04-02 06:27:17 51°14.952 2°53.386 -999 3.255774 30.513931 19.092911
2009-04-02 06:27:22 51°14.959 2°53.363 -999 3.254014 30.509042 19.545624
2009-04-02 06:27:26 51°14.964 2°53.343 -999 3.252564 30.506591 20.172456
2009-04-02 06:27:32 51°14.973 2°53.315 -999 3.250287 30.496319 20.799289
2009-04-02 06:27:37 51°14.98 2°53.291 -999 3.247594 30.47701 21.669891
2009-04-02 06:27:42 51°14.987 2°53.267 -999 3.247594 30.47701 21.669891
2009-04-02 06:27:46 51°14.992 2°53.248 -999 3.24397 30.455882 22.331548
2009-04-02 06:27:52 51°14.999 2°53.219 -999 3.241589 30.436634 22.958381
2009-04-02 06:27:57 51°15.006 2°53.195 -999 3.239518 30.424548 23.480742
2009-04-02 06:28:02 51°15.012 2°53.171 -999 3.235894 30.401811 24.037926
2009-04-02 06:28:06 51°15.017 2°53.152 -999 3.233616 30.388344 24.386167
2009-04-02 06:28:12 51°15.026 2°53.123 -999 3.233616 30.388344 24.386167
2009-04-02 06:28:17 51°15.033 2°53.099 -999 3.232684 30.383369 25.152296
2009-04-02 06:28:22 51°15.04 2°53.076 -999 3.230924 30.37292 25.674657
2009-04-02 06:28:26 51°15.045 2°53.057 -999 3.229578 30.371502 26.092546
2009-04-02 06:28:32 51°15.055 2°53.029 -999 3.228957 30.376057 26.162194
2009-04-02 06:28:37 51°15.062 2°53.006 -999 3.225851 30.350004 26.30149
2009-04-02 06:28:42 51°15.069 2°52.983 -999 3.225851 30.350004 26.30149
2009-04-02 06:28:46 51°15.076 2°52.965 -999 3.226265 30.359042 26.440786
2009-04-02 06:28:52 51°15.085 2°52.937 -999 3.22523 30.353768 26.614906
2009-04-02 06:28:57 51°15.093 2°52.914 -999 3.225126 30.355052 26.30149
2009-04-02 06:29:02 51°15.101 2°52.892 -999 3.224091 30.344264 26.231842
2009-04-02 06:29:06 51°15.107 2°52.874 -999 3.219535 30.2968 25.988073
2009-04-02 06:29:12 51°15.116 2°52.846 -999 3.219535 30.2968 25.988073
2009-04-02 06:29:17 51°15.124 2°52.824 -999 3.221399 30.324872 25.813953
2009-04-02 06:29:22 51°15.132 2°52.801 -999 3.18661 29.96807 25.465713
2009-04-02 06:29:26 51°15.138 2°52.783 -999 2.944297 27.462094 25.152296
2009-04-02 06:29:32 51°15.148 2°52.756 -999 3.222849 30.352585 24.83888
2009-04-02 06:29:37 51°15.155 2°52.733 -999 3.222435 30.353785 24.386167
2009-04-02 06:29:42 51°15.163 2°52.711 -999 3.222435 30.353785 24.386167
2009-04-02 06:29:47 51°15.171 2°52.688 -999 3.222435 30.361672 24.142399
2009-04-02 06:29:52 51°15.179 2°52.665 -999 3.222435 30.367195 23.759334
2009-04-02 06:29:57 51°15.187 2°52.643 -999 3.222849 30.372306 23.376269
2009-04-02 06:30:02 51°15.195 2°52.621 -999 3.223574 30.379867 23.236973
2009-04-02 06:30:06 51°15.202 2°52.603 -999 3.224609 30.39383 23.271797
2009-04-02 06:30:12 51°15.211 2°52.576 -999 3.224609 30.39383 23.271797
2009-04-02 06:30:17 51°15.219 2°52.554 -999 3.225645 30.407006 23.097677
2009-04-02 06:30:22 51°15.227 2°52.531 -999 3.227198 30.424007 23.515566
2009-04-02 06:30:26 51°15.233 2°52.512 -999 3.228958 30.443171 23.480742
2009-04-02 06:30:32 51°15.241 2°52.485 -999 3.230615 30.465217 23.55039
2009-04-02 06:30:37 51°15.248 2°52.461 -999 3.232065 30.484316 23.620038
2009-04-02 06:30:42 51°15.254 2°52.438 -999 3.232065 30.484316 23.620038
2009-04-02 06:30:46 51°15.26 2°52.419 -999 3.2331 30.498302 23.480742
2009-04-02 06:30:52 51°15.267 2°52.39 -999 3.234135 30.512291 23.689686
2009-04-02 06:30:57 51°15.273 2°52.367 -999 3.235171 30.526284 23.306621
2009-04-02 06:31:02 51°15.279 2°52.343 -999 3.235999 30.536527 23.271797
2009-04-02 06:31:06 51°15.284 2°52.324 -999 3.236931 30.551033 23.132501
2009-04-02 06:31:12 51°15.291 2°52.295 -999 3.236931 30.551033 23.132501
2009-04-02 06:31:17 51°15.297 2°52.271 -999 3.237967 30.566627 23.167325
2009-04-02 06:31:22 51°15.303 2°52.247 -999 3.238278 30.57624 23.062853
2009-04-02 06:31:26 51°15.309 2°52.229 -999 3.239106 30.588086 23.236973
2009-04-02 06:31:32 51°15.315 2°52.199 -999 3.239417 30.591335 23.376269
2009-04-02 06:31:37 51°15.322 2°52.176 -999 3.239727 30.594583 23.515566
2009-04-02 06:31:42 51°15.328 2°52.152 -999 3.239727 30.594583 23.515566
2009-04-02 06:31:47 51°15.334 2°52.128 -999 3.240452 30.602959 23.55039
2009-04-02 06:31:52 51°15.341 2°52.104 -999 3.241177 30.61293 23.654862
2009-04-02 06:31:57 51°15.346 2°52.08 -999 3.241488 30.616976 23.759334
2009-04-02 06:32:02 51°15.352 2°52.057 -999 3.241798 30.62501 23.794158
2009-04-02 06:32:07 51°15.359 2°52.033 -999 3.242005 30.630367 23.794158
2009-04-02 06:32:11 51°15.363 2°52.014 -999 3.242005 30.630367 23.794158
2009-04-02 06:32:17 51°15.37 2°51.985 -999 3.242109 30.633047 23.620038
2009-04-02 06:32:22 51°15.376 2°51.961 -999 3.241902 30.635668 23.445918
2009-04-02 06:32:27 51°15.382 2°51.937 -999 3.242213 30.64291 23.202149
2009-04-02 06:32:32 51°15.388 2°51.913 -999 3.242213 30.6485 23.097677
2009-04-02 06:32:37 51°15.394 2°51.889 -999 3.24242 30.654663 22.853909
2009-04-02 06:32:42 51°15.4 2°51.865 -999 3.24242 30.654663 22.853909
2009-04-02 06:32:47 51°15.406 2°51.842 -999 3.242523 30.656546 22.644964
2009-04-02 06:32:52 51°15.41 2°51.817 -999 3.242627 30.658429 22.401196
2009-04-02 06:32:57 51°15.416 2°51.794 -999 3.243559 30.668986 22.227076
2009-04-02 06:33:02 51°15.42 2°51.77 -999 3.244284 30.676575 22.122603
2009-04-02 06:33:06 51°15.424 2°51.75 -999 3.245216 30.687134 21.913659
2009-04-02 06:33:12 51°15.429 2°51.721 -999 3.245216 30.687134 21.913659
2009-04-02 06:33:17 51°15.433 2°51.697 -999 3.246044 30.697409 21.878835
2009-04-02 06:33:22 51°15.437 2°51.672 -999 3.246769 30.705801 21.669891
2009-04-02 06:33:26 51°15.441 2°51.653 -999 3.24739 30.712308 21.565419
2009-04-02 06:33:32 51°15.446 2°51.623 -999 3.248115 30.719899 21.495771
2009-04-02 06:33:37 51°15.45 2°51.599 -999 3.248736 30.727208 21.391298
2009-04-02 06:33:42 51°15.455 2°51.574 -999 3.248736 30.727208 21.391298
2009-04-02 06:33:46 51°15.458 2°51.554 -999 3.249254 30.732631 20.938586
2009-04-02 06:33:52 51°15.463 2°51.525 -999 3.249461 30.7348 20.834113
2009-04-02 06:33:57 51°15.468 2°51.5 -999 3.249565 30.735885 20.659993
2009-04-02 06:34:02 51°15.472 2°51.476 -999 3.249565 30.735885 20.590345
2009-04-02 06:34:06 51°15.476 2°51.456 -999 3.249461 30.735602 20.625169
2009-04-02 06:34:12 51°15.481 2°51.426 -999 3.249461 30.735602 20.625169
2009-04-02 06:34:17 51°15.485 2°51.402 -999 3.249875 30.741544 20.625169
2009-04-02 06:34:22 51°15.49 2°51.377 -999 3.249979 30.744232 20.625169
2009-04-02 06:34:26 51°15.494 2°51.357 -999 3.249979 30.745033 20.694817
2009-04-02 06:34:32 51°15.499 2°51.327 -999 3.25029 30.748288 20.625169
2009-04-02 06:34:37 51°15.504 2°51.302 -999 3.250807 30.749703 20.555521
2009-04-02 06:34:42 51°15.509 2°51.278 -999 3.250807 30.749703 20.555521
2009-04-02 06:34:46 51°15.513 2°51.258 -999 3.251325 30.75192 20.555521
2009-04-02 06:34:52 51°15.518 2°51.228 -999 3.25205 30.760315 20.416225
2009-04-02 06:34:57 51°15.523 2°51.203 -999 3.252775 30.769512 20.381401
2009-04-02 06:35:02 51°15.527 2°51.178 -999 3.253396 30.776824 20.276929
2009-04-02 06:35:06 51°15.53 2°51.158 -999 3.253914 30.785459 20.172456
2009-04-02 06:35:12 51°15.534 2°51.128 -999 3.253914 30.785459 20.172456
2009-04-02 06:35:17 51°15.538 2°51.103 -999 3.254432 30.79249 20.03316
2009-04-02 06:35:22 51°15.54 2°51.077 -999 3.254846 30.798437 19.998336
2009-04-02 06:35:26 51°15.544 2°51.057 -999 3.255674 30.807922 20.03316
2009-04-02 06:35:32 51°15.547 2°51.026 -999 3.256088 30.81146 19.928688
2009-04-02 06:35:37 51°15.551 2°51.001 -999 3.257331 30.826895 19.754568
2009-04-02 06:35:42 51°15.555 2°50.975 -999 3.257331 30.826895 19.754568
2009-04-02 06:35:47 51°15.559 2°50.95 -999 3.258159 30.837187 19.824216
2009-04-02 06:35:52 51°15.563 2°50.925 -999 3.25847 30.839639 19.650096
2009-04-02 06:35:57 51°15.568 2°50.901 -999 3.259091 30.843739 19.615272
2009-04-02 06:36:02 51°15.573 2°50.876 -999 3.259298 30.843497 19.371503
2009-04-02 06:36:07 51°15.578 2°50.851 -999 3.260437 30.853827 19.232207
2009-04-02 06:36:12 51°15.585 2°50.828 -999 3.260437 30.853827 19.232207
2009-04-02 06:36:17 51°15.59 2°50.803 -999 3.261162 30.861425 19.092911
2009-04-02 06:36:22 51°15.597 2°50.78 -999 3.26168 30.867657 19.127735
2009-04-02 06:36:27 51°15.603 2°50.757 -999 3.262301 30.87417 18.918791
2009-04-02 06:36:32 51°15.61 2°50.733 -999 3.262509 30.876341 18.74467
2009-04-02 06:36:37 51°15.617 2°50.709 -999 3.262923 30.878267 18.709846
2009-04-02 06:36:42 51°15.624 2°50.686 -999 3.262923 30.878267 18.709846
2009-04-02 06:36:47 51°15.631 2°50.662 -999 3.262923 30.875047 18.605374
2009-04-02 06:36:51 51°15.638 2°50.644 -999 3.263958 30.885095 18.326782
2009-04-02 06:36:57 51°15.646 2°50.616 -999 3.264994 30.895143 18.117837
2009-04-02 06:37:02 51°15.654 2°50.592 -999 3.266029 30.908415 18.048189
2009-04-02 06:37:07 51°15.661 2°50.569 -999 3.267168 30.921969 17.908893
2009-04-02 06:37:12 51°15.669 2°50.545 -999 3.267168 30.921969 17.908893
2009-04-02 06:37:17 51°15.677 2°50.522 -999 3.268618 30.936361 17.734773
2009-04-02 06:37:22 51°15.684 2°50.499 -999 3.26955 30.944519 17.595476
2009-04-02 06:37:27 51°15.692 2°50.476 -999 3.271103 30.95919 17.421356
2009-04-02 06:37:32 51°15.7 2°50.452 -999 3.272553 30.974391 17.386532
2009-04-02 06:37:37 51°15.708 2°50.43 -999 3.273899 30.988506 17.212412
2009-04-02 06:37:42 51°15.715 2°50.406 -999 3.273899 30.988506 17.212412
2009-04-02 06:37:47 51°15.723 2°50.383 -999 3.275142 30.99992 17.142764
2009-04-02 06:37:51 51°15.729 2°50.364 -999 3.276488 31.014845 17.073116
2009-04-02 06:37:57 51°15.738 2°50.335 -999 3.277834 31.028963 17.073116
2009-04-02 06:38:02 51°15.744 2°50.311 -999 3.278766 31.038738 17.073116
2009-04-02 06:38:07 51°15.751 2°50.288 -999 3.279698 31.049322 16.864171
2009-04-02 06:38:12 51°15.757 2°50.263 -999 3.279698 31.049322 16.864171
2009-04-02 06:38:17 51°15.765 2°50.239 -999 3.280837 31.05965 16.759699
2009-04-02 06:38:22 51°15.77 2°50.215 -999 3.281666 31.06834 16.690051
2009-04-02 06:38:27 51°15.777 2°50.192 -999 3.283219 31.084633 16.585579
2009-04-02 06:38:32 51°15.783 2°50.167 -999 3.284255 31.094686 16.446283
2009-04-02 06:38:37 51°15.789 2°50.143 -999 3.285704 31.107461 16.411459
2009-04-02 06:38:42 51°15.795 2°50.119 -999 3.285704 31.107461 16.411459
2009-04-02 06:38:47 51°15.8 2°50.094 -999 3.287258 31.122945 16.202514
2009-04-02 06:38:52 51°15.806 2°50.07 -999 3.2885 31.134358 16.132866
2009-04-02 06:38:57 51°15.811 2°50.046 -999 3.289743 31.145771 15.958746
2009-04-02 06:39:02 51°15.816 2°50.021 -999 3.290779 31.155823 15.889098
2009-04-02 06:39:07 51°15.821 2°49.997 -999 3.292228 31.171033 15.958746
2009-04-02 06:39:11 51°15.825 2°49.978 -999 3.292228 31.171033 15.958746
2009-04-02 06:39:17 51°15.831 2°49.948 -999 3.293368 31.182984 15.749802
2009-04-02 06:39:22 51°15.836 2°49.924 -999 3.294403 31.193037 15.575681
2009-04-02 06:39:27 51°15.841 2°49.9 -999 3.295853 31.208249 15.401561
2009-04-02 06:39:32 51°15.846 2°49.875 -999 3.296992 31.220202 15.366737
2009-04-02 06:39:37 51°15.851 2°49.851 -999 3.299374 31.244383 15.157793
2009-04-02 06:39:42 51°15.856 2°49.827 -999 3.299374 31.244383 15.157793
2009-04-02 06:39:47 51°15.86 2°49.802 -999 3.301549 31.266391 14.948848
2009-04-02 06:39:52 51°15.865 2°49.778 -999 3.304138 31.291118 14.8792
2009-04-02 06:39:57 51°15.869 2°49.753 -999 3.305898 31.305516 14.774728
2009-04-02 06:40:02 51°15.873 2°49.728 -999 3.307452 31.318555 14.70508
2009-04-02 06:40:07 51°15.876 2°49.704 -999 3.308798 31.330236 14.635432
2009-04-02 06:40:11 51°15.879 2°49.684 -999 3.308798 31.330236 14.635432
2009-04-02 06:40:17 51°15.882 2°49.654 -999 3.310248 31.345452 14.426488
2009-04-02 06:40:22 51°15.884 2°49.629 -999 3.311905 31.364477 14.147895
2009-04-02 06:40:27 51°15.887 2°49.604 -999 3.313665 31.384592 13.869303
2009-04-02 06:40:32 51°15.889 2°49.578 -999 3.31584 31.410698 13.695182
2009-04-02 06:40:37 51°15.892 2°49.553 -999 3.317911 31.433266 13.41659
2009-04-02 06:40:42 51°15.894 2°49.527 -999 3.317911 31.433266 13.41659
2009-04-02 06:40:47 51°15.896 2°49.502 -999 3.319361 31.447673 13.277294
2009-04-02 06:40:52 51°15.898 2°49.477 -999 3.321847 31.472956 12.998701
2009-04-02 06:40:57 51°15.899 2°49.451 -999 3.324022 31.494157 12.754933
2009-04-02 06:41:02 51°15.901 2°49.426 -999 3.327854 31.533585 12.476341
2009-04-02 06:41:07 51°15.903 2°49.401 -999 3.331168 31.565111 12.197748
2009-04-02 06:41:11 51°15.905 2°49.38 -999 3.331168 31.565111 12.197748
2009-04-02 06:41:17 51°15.907 2°49.349 -999 3.334378 31.596371 11.95398
2009-04-02 06:41:22 51°15.909 2°49.324 -999 3.338624 31.63604 11.675387
2009-04-02 06:41:27 51°15.911 2°49.298 -999 3.343388 31.682797 11.501267
2009-04-02 06:41:32 51°15.914 2°49.273 -999 3.347013 31.717584 11.153027
2009-04-02 06:41:37 51°15.915 2°49.248 -999 3.351363 31.761643 10.909258
2009-04-02 06:41:42 51°15.918 2°49.222 -999 3.351363 31.761643 10.909258
2009-04-02 06:41:47 51°15.92 2°49.196 -999 3.355195 31.799436 10.66549
2009-04-02 06:41:52 51°15.923 2°49.171 -999 3.358924 31.83697 10.49137
2009-04-02 06:41:57 51°15.925 2°49.146 -999 3.362031 31.869635 10.352073
2009-04-02 06:42:02 51°15.927 2°49.12 -999 3.364517 31.893278 10.212777
2009-04-02 06:42:07 51°15.929 2°49.095 -999 3.365967 31.90437 10.003833
2009-04-02 06:42:12 51°15.931 2°49.07 -999 3.365967 31.90437 10.003833
2009-04-02 06:42:17 51°15.933 2°49.044 -999 3.369281 31.935059 9.829713
2009-04-02 06:42:22 51°15.935 2°49.019 -999 3.372285 31.966639 9.690416
2009-04-02 06:42:27 51°15.937 2°48.993 -999 3.375081 31.997711 9.481472
2009-04-02 06:42:31 51°15.938 2°48.972 -999 3.377982 32.029879 9.307352
2009-04-02 06:42:37 51°15.941 2°48.942 -999 3.380467 32.057697 9.168055
2009-04-02 06:42:42 51°15.942 2°48.916 -999 3.380467 32.057697 9.168055
2009-04-02 06:42:47 51°15.944 2°48.891 -999 3.382643 32.082251 9.098407
2009-04-02 06:42:52 51°15.945 2°48.865 -999 3.384196 32.098599 8.959111
2009-04-02 06:42:57 51°15.948 2°48.84 -999 3.385854 32.116874 8.924287
2009-04-02 06:43:02 51°15.95 2°48.814 -999 3.386993 32.128028 8.889463
2009-04-02 06:43:07 51°15.951 2°48.789 -999 3.388236 32.141109 8.750167
2009-04-02 06:43:12 51°15.953 2°48.763 -999 3.388236 32.141109 8.750167
2009-04-02 06:43:17 51°15.956 2°48.738 -999 3.389997 32.159641 8.715343
2009-04-02 06:43:22 51°15.957 2°48.712 -999 3.391343 32.173814 8.576047
2009-04-02 06:43:27 51°15.959 2°48.686 -999 3.391965 32.181194 8.541223
2009-04-02 06:43:31 51°15.961 2°48.666 -999 3.39414 32.204092 8.43675
2009-04-02 06:43:37 51°15.964 2°48.636 -999 3.39414 32.20493 8.367102
2009-04-02 06:43:42 51°15.965 2°48.61 -999 3.39414 32.20493 8.367102
2009-04-02 06:43:47 51°15.969 2°48.585 -999 3.395072 32.214745 8.367102
2009-04-02 06:43:52 51°15.969 2°48.56 -999 3.395279 32.215248 8.26263
2009-04-02 06:43:57 51°15.973 2°48.535 -999 3.397454 32.237309 8.297454
2009-04-02 06:44:02 51°15.975 2°48.509 -999 3.397144 32.234038 8.227806
2009-04-02 06:44:07 51°15.977 2°48.484 -999 3.397454 32.237309 8.192982
2009-04-02 06:44:12 51°15.979 2°48.458 -999 3.397454 32.237309 8.192982
2009-04-02 06:44:17 51°15.982 2°48.433 -999 3.39818 32.244943 8.192982
2009-04-02 06:44:22 51°15.984 2°48.407 -999 3.398801 32.251487 8.227806
2009-04-02 06:44:27 51°15.987 2°48.382 -999 3.399423 32.259711 8.26263
2009-04-02 06:44:31 51°15.988 2°48.362 -999 3.401287 32.281026 8.158158
2009-04-02 06:44:37 51°15.991 2°48.332 -999 3.401494 32.28573 8.158158
2009-04-02 06:44:42 51°15.993 2°48.306 -999 3.401494 32.28573 8.158158
2009-04-02 06:44:47 51°15.996 2°48.281 -999 3.401701 32.291276 8.192982
2009-04-02 06:44:52 51°15.997 2°48.255 -999 3.401598 32.29355 8.158158
2009-04-02 06:44:57 51°16 2°48.23 -999 3.401701 32.296323 8.158158
2009-04-02 06:45:02 51°16.002 2°48.204 -999 3.401494 32.29919 8.227806
2009-04-02 06:45:07 51°16.003 2°48.179 -999 3.401184 32.29844 8.192982
2009-04-02 06:45:12 51°16.005 2°48.153 -999 3.401184 32.29844 8.192982
2009-04-02 06:45:17 51°16.008 2°48.128 -999 3.40108 32.298191 8.227806
2009-04-02 06:45:22 51°16.008 2°48.102 -999 3.400251 32.2903 8.26263
2009-04-02 06:45:27 51°16.011 2°48.077 -999 3.400977 32.299624 8.123334
2009-04-02 06:45:32 51°16.013 2°48.051 -999 3.400977 32.302992 8.192982
2009-04-02 06:45:37 51°16.016 2°48.026 -999 3.401184 32.308544 8.26263
2009-04-02 06:45:42 51°16.017 2°48 -999 3.401184 32.308544 8.26263
2009-04-02 06:45:47 51°16.02 2°47.974 -999 3.401391 32.31157 8.192982
2009-04-02 06:45:51 51°16.021 2°47.953 -999 3.401495 32.311819 8.192982
2009-04-02 06:45:57 51°16.024 2°47.922 -999 3.402012 32.316436 8.192982
2009-04-02 06:46:02 51°16.026 2°47.897 -999 3.402116 32.317528 8.227806
2009-04-02 06:46:07 51°16.027 2°47.871 -999 3.40222 32.31862 8.123334
2009-04-02 06:46:12 51°16.03 2°47.846 -999 3.40222 32.31862 8.123334
2009-04-02 06:46:17 51°16.031 2°47.82 -999 3.402737 32.324922 8.227806
2009-04-02 06:46:22 51°16.033 2°47.794 -999 3.403152 32.330132 8.192982
2009-04-02 06:46:27 51°16.036 2°47.769 -999 3.403877 32.337776 8.26263
2009-04-02 06:46:32 51°16.037 2°47.743 -999 3.404291 32.343831 8.332278
2009-04-02 06:46:37 51°16.04 2°47.717 -999 3.405638 32.355498 8.367102
2009-04-02 06:46:42 51°16.042 2°47.691 -999 3.405638 32.355498 8.367102
2009-04-02 06:46:47 51°16.045 2°47.666 -999 3.407088 32.371631 8.471574
2009-04-02 06:46:51 51°16.047 2°47.645 -999 3.407813 32.378432 8.506398
2009-04-02 06:46:57 51°16.05 2°47.614 -999 3.409574 32.397845 8.541223
2009-04-02 06:47:02 51°16.051 2°47.588 -999 3.410195 32.405243 8.541223
2009-04-02 06:47:07 51°16.055 2°47.562 -999 3.411231 32.416167 8.506398
2009-04-02 06:47:12 51°16.057 2°47.536 -999 3.411231 32.416167 8.506398
2009-04-02 06:47:17 51°16.06 2°47.511 -999 3.411024 32.413137 8.471574
2009-04-02 06:47:22 51°16.061 2°47.485 -999 3.410921 32.41289 8.541223
2009-04-02 06:47:27 51°16.064 2°47.46 -999 3.411542 32.42029 8.401926
2009-04-02 06:47:32 51°16.067 2°47.434 -999 3.410921 32.41458 8.367102
2009-04-02 06:47:37 51°16.069 2°47.409 -999 3.411335 32.418105 8.332278
2009-04-02 06:47:42 51°16.072 2°47.383 -999 3.411335 32.418105 8.332278
2009-04-02 06:47:47 51°16.074 2°47.358 -999 3.411335 32.41726 8.367102
2009-04-02 06:47:52 51°16.077 2°47.332 -999 3.411542 32.418599 8.297454
2009-04-02 06:47:57 51°16.079 2°47.307 -999 3.411335 32.418105 8.401926
2009-04-02 06:48:02 51°16.081 2°47.281 -999 3.41206 32.424907 8.297454
2009-04-02 06:48:07 51°16.084 2°47.256 -999 3.412267 32.426246 8.297454
2009-04-02 06:48:12 51°16.086 2°47.231 -999 3.412267 32.426246 8.297454
2009-04-02 06:48:17 51°16.088 2°47.205 -999 3.411853 32.421877 8.26263
2009-04-02 06:48:22 51°16.092 2°47.18 -999 3.412578 32.430369 8.332278
2009-04-02 06:48:27 51°16.092 2°47.154 -999 3.412992 32.433894 8.297454
2009-04-02 06:48:32 51°16.097 2°47.13 -999 3.414857 32.451867 8.367102
2009-04-02 06:48:37 51°16.097 2°47.104 -999 3.414442 32.444959 8.367102
2009-04-02 06:48:42 51°16.101 2°47.079 -999 3.414442 32.444959 8.367102
2009-04-02 06:48:47 51°16.103 2°47.054 -999 3.416203 32.460993 8.367102
2009-04-02 06:48:52 51°16.105 2°47.028 -999 3.416721 32.463916 8.367102
2009-04-02 06:48:57 51°16.109 2°47.003 -999 3.417343 32.467932 8.401926
2009-04-02 06:49:02 51°16.111 2°46.977 -999 3.417653 32.467825 8.43675
2009-04-02 06:49:07 51°16.114 2°46.952 -999 3.418275 32.472686 8.43675
2009-04-02 06:49:11 51°16.115 2°46.931 -999 3.418275 32.472686 8.43675
2009-04-02 06:49:17 51°16.119 2°46.901 -999 3.418586 32.47427 8.367102
2009-04-02 06:49:22 51°16.121 2°46.875 -999 3.419104 32.478038 8.367102
2009-04-02 06:49:27 51°16.124 2°46.85 -999 3.419518 32.479022 8.43675
2009-04-02 06:49:32 51°16.123 2°46.825 -999 3.419932 32.482544 8.367102
2009-04-02 06:49:37 51°16.125 2°46.8 -999 3.420554 32.486557 8.401926
2009-04-02 06:49:42 51°16.122 2°46.775 -999 3.420554 32.486557 8.401926
2009-04-02 06:49:47 51°16.124 2°46.75 -999 3.420864 32.487295 8.332278
2009-04-02 06:49:52 51°16.12 2°46.725 -999 3.421175 32.487186 8.297454
2009-04-02 06:49:57 51°16.118 2°46.701 -999 3.421693 32.490107 8.297454
2009-04-02 06:50:02 51°16.116 2°46.676 -999 3.421589 32.483094 8.26263
2009-04-02 06:50:07 51°16.11 2°46.653 -999 3.422107 32.481787 8.26263
2009-04-02 06:50:11 51°16.106 2°46.634 -999 3.422107 32.481787 8.26263
2009-04-02 06:50:17 51°16.101 2°46.606 -999 3.422625 32.483861 8.26263
2009-04-02 06:50:22 51°16.094 2°46.584 -999 3.423661 32.493928 8.227806
2009-04-02 06:50:27 51°16.088 2°46.561 -999 3.42449 32.502658 8.26263
2009-04-02 06:50:32 51°16.083 2°46.538 -999 3.424593 32.501212 8.192982
2009-04-02 06:50:37 51°16.074 2°46.517 -999 3.425422 32.507404 8.227806
2009-04-02 06:50:42 51°16.069 2°46.493 -999 3.425422 32.507404 8.227806
2009-04-02 06:50:47 51°16.062 2°46.472 -999 3.425525 32.502575 8.123334
2009-04-02 06:50:52 51°16.054 2°46.45 -999 3.426665 32.509502 8.123334
2009-04-02 06:50:57 51°16.049 2°46.427 -999 3.427701 32.516182 8.053686
2009-04-02 06:51:02 51°16.04 2°46.408 -999 3.429254 32.530852 8.018862
2009-04-02 06:51:07 51°16.035 2°46.384 -999 3.430808 32.544675 7.91439
2009-04-02 06:51:12 51°16.026 2°46.364 -999 3.430808 32.544675 7.91439
2009-04-02 06:51:17 51°16.018 2°46.342 -999 3.43143 32.54445 7.879566
2009-04-02 06:51:22 51°16.012 2°46.32 -999 3.43288 32.556333 7.879566
2009-04-02 06:51:27 51°16.003 2°46.299 -999 3.433916 32.561314 7.879566
2009-04-02 06:51:31 51°15.997 2°46.281 -999 3.435262 32.572104 7.775093
2009-04-02 06:51:37 51°15.988 2°46.256 -999 3.436298 32.580468 7.775093
2009-04-02 06:51:42 51°15.979 2°46.235 -999 3.436298 32.580468 7.775093
2009-04-02 06:51:47 51°15.973 2°46.212 -999 3.437748 32.593192 7.705445
2009-04-02 06:51:52 51°15.964 2°46.193 -999 3.437748 32.588112 7.635797
2009-04-02 06:51:57 51°15.956 2°46.171 -999 3.438784 32.596473 7.566149
2009-04-02 06:52:02 51°15.95 2°46.148 -999 3.439509 32.601563 7.531325
2009-04-02 06:52:06 51°15.943 2°46.133 -999 3.440545 32.609076 7.392029
2009-04-02 06:52:12 51°15.933 2°46.108 -999 3.440545 32.609076 7.392029
2009-04-02 06:52:17 51°15.929 2°46.085 -999 3.440752 32.608716 7.357205
2009-04-02 06:52:22 51°15.92 2°46.065 -999 3.441374 32.612715 7.392029
2009-04-02 06:52:26 51°15.916 2°46.047 -999 3.441684 32.613444 7.287557
2009-04-02 06:52:32 51°15.906 2°46.021 -999 3.441684 32.610904 7.287557
2009-04-02 06:52:37 51°15.902 2°45.998 -999 3.442513 32.624703 7.322381
2009-04-02 06:52:42 51°15.893 2°45.978 -999 3.442513 32.624703 7.322381
2009-04-02 06:52:47 51°15.888 2°45.954 -999 3.442202 32.623128 7.287557
2009-04-02 06:52:52 51°15.881 2°45.933 -999 3.442203 32.626517 7.287557
2009-04-02 06:52:57 51°15.874 2°45.911 -999 3.441581 32.620824 7.217908
2009-04-02 06:53:02 51°15.869 2°45.888 -999 3.440131 32.59879 7.217908
2009-04-02 06:53:07 51°15.861 2°45.867 -999 3.440545 32.602303 7.14826
2009-04-02 06:53:12 51°15.856 2°45.844 -999 3.440545 32.602303 7.14826
2009-04-02 06:53:17 51°15.848 2°45.823 -999 3.441063 32.609445 7.252733
2009-04-02 06:53:22 51°15.843 2°45.799 -999 3.440959 32.608355 7.287557
2009-04-02 06:53:26 51°15.838 2°45.781 -999 3.441167 32.611382 7.322381
2009-04-02 06:53:32 51°15.83 2°45.754 -999 3.441063 32.609445 7.287557
2009-04-02 06:53:37 51°15.824 2°45.73 -999 3.442306 32.625912 7.217908
2009-04-02 06:53:42 51°15.818 2°45.707 -999 3.442306 32.625912 7.217908
2009-04-02 06:53:47 51°15.812 2°45.684 -999 3.442203 32.624822 7.252733
2009-04-02 06:53:52 51°15.805 2°45.662 -999 3.442513 32.629787 7.322381
2009-04-02 06:53:57 51°15.8 2°45.638 -999 3.441892 32.623247 7.287557
2009-04-02 06:54:02 51°15.793 2°45.616 -999 3.442099 32.627969 7.357205
2009-04-02 06:54:06 51°15.789 2°45.597 -999 3.441685 32.625303 7.287557
2009-04-02 06:54:12 51°15.782 2°45.57 -999 3.441685 32.625303 7.287557
2009-04-02 06:54:17 51°15.775 2°45.547 -999 3.441477 32.62736 7.287557
2009-04-02 06:54:22 51°15.771 2°45.523 -999 3.441063 32.625541 7.357205
2009-04-02 06:54:26 51°15.766 2°45.505 -999 3.440752 32.623965 7.357205
2009-04-02 06:54:32 51°15.758 2°45.478 -999 3.440545 32.619242 7.461677
2009-04-02 06:54:37 51°15.755 2°45.454 -999 3.440442 32.618152 7.531325
2009-04-02 06:54:42 51°15.749 2°45.432 -999 3.440442 32.618152 7.531325
2009-04-02 06:54:46 51°15.745 2°45.413 -999 3.440338 32.619604 7.566149
2009-04-02 06:54:52 51°15.742 2°45.383 -999 3.440234 32.618513 7.600973
2009-04-02 06:54:57 51°15.738 2°45.36 -999 3.440131 32.619118 7.600973
2009-04-02 06:55:02 51°15.735 2°45.336 -999 3.440442 32.623237 7.600973
2009-04-02 06:55:07 51°15.733 2°45.312 -999 3.440442 32.623237 7.635797
2009-04-02 06:55:12 51°15.731 2°45.287 -999 3.440442 32.623237 7.635797
2009-04-02 06:55:17 51°15.73 2°45.262 -999 3.440752 32.626508 7.635797
2009-04-02 06:55:22 51°15.729 2°45.237 -999 3.440856 32.626751 7.705445
2009-04-02 06:55:26 51°15.729 2°45.217 -999 3.441167 32.629175 7.705445
2009-04-02 06:55:32 51°15.729 2°45.187 -999 3.441478 32.631598 7.740269
2009-04-02 06:55:37 51°15.731 2°45.162 -999 3.441581 32.629298 7.740269
2009-04-02 06:55:42 51°15.732 2°45.136 -999 3.441581 32.629298 7.740269
2009-04-02 06:55:46 51°15.733 2°45.116 -999 3.441788 32.630631 7.809917
2009-04-02 06:55:52 51°15.738 2°45.086 -999 3.441788 32.629783 7.775093
2009-04-02 06:55:57 51°15.741 2°45.061 -999 3.441788 32.629783 7.705445
2009-04-02 06:56:02 51°15.748 2°45.038 -999 3.441788 32.628936 7.740269
2009-04-02 06:56:06 51°15.751 2°45.018 -999 3.441685 32.626998 7.844741
2009-04-02 06:56:12 51°15.76 2°44.99 -999 3.441685 32.626998 7.844741
2009-04-02 06:56:17 51°15.766 2°44.967 -999 3.441685 32.625303 7.809917
2009-04-02 06:56:22 51°15.774 2°44.944 -999 3.441477 32.622275 7.809917
2009-04-02 06:56:26 51°15.781 2°44.926 -999 3.441374 32.618643 7.705445
2009-04-02 06:56:32 51°15.79 2°44.899 -999 3.441374 32.611021 7.809917
2009-04-02 06:56:37 51°15.798 2°44.877 -999 3.441581 32.612354 7.809917
2009-04-02 06:56:42 51°15.807 2°44.855 -999 3.441581 32.612354 7.809917
2009-04-02 06:56:46 51°15.814 2°44.837 -999 3.441685 32.615984 7.809917
2009-04-02 06:56:52 51°15.826 2°44.812 -999 3.441788 32.619615 7.775093
2009-04-02 06:56:57 51°15.835 2°44.79 -999 3.441892 32.624094 7.809917
2009-04-02 06:57:02 51°15.846 2°44.769 -999 3.441892 32.624941 7.740269
2009-04-02 06:57:06 51°15.855 2°44.754 -999 3.441995 32.626879 7.705445
2009-04-02 06:57:12 51°15.867 2°44.729 -999 3.441995 32.626879 7.705445
2009-04-02 06:57:17 51°15.879 2°44.711 -999 3.442306 32.630149 7.740269
2009-04-02 06:57:22 51°15.89 2°44.691 -999 3.442928 32.637538 7.740269
2009-04-02 06:57:27 51°15.903 2°44.673 -999 3.443446 32.642989 7.740269
2009-04-02 06:57:32 51°15.914 2°44.654 -999 3.444067 32.649531 7.740269
2009-04-02 06:57:37 51°15.927 2°44.636 -999 3.444792 32.656315 7.705445
2009-04-02 06:57:42 51°15.939 2°44.618 -999 3.444792 32.656315 7.705445
2009-04-02 06:57:46 51°15.948 2°44.603 -999 3.445828 32.667218 7.705445
2009-04-02 06:57:52 51°15.963 2°44.581 -999 3.446761 32.678729 7.705445
2009-04-02 06:57:57 51°15.975 2°44.563 -999 3.447797 32.689634 7.670621
2009-04-02 06:58:02 51°15.987 2°44.545 -999 3.44904 32.70272 7.670621
2009-04-02 06:58:06 51°15.997 2°44.531 -999 3.45049 32.717139 7.635797
2009-04-02 06:58:12 51°16.011 2°44.509 -999 3.45049 32.717139 7.635797
2009-04-02 06:58:17 51°16.023 2°44.491 -999 3.452665 32.740043 7.635797
2009-04-02 06:58:22 51°16.036 2°44.473 -999 3.454634 32.761619 7.670621
2009-04-02 06:58:26 51°16.045 2°44.458 -999 3.456913 32.785619 7.635797
2009-04-02 06:58:32 51°16.06 2°44.436 -999 3.459606 32.812282 7.600973
2009-04-02 06:58:37 51°16.072 2°44.417 -999 3.462092 32.836763 7.566149
2009-04-02 06:58:42 51°16.085 2°44.4 -999 3.462092 32.836763 7.566149
2009-04-02 06:58:46 51°16.094 2°44.384 -999 3.464164 32.85688 7.600973
2009-04-02 06:58:52 51°16.11 2°44.364 -999 3.466547 32.884541 7.496501
2009-04-02 06:58:57 51°16.121 2°44.345 -999 3.468205 32.901149 7.461677
2009-04-02 06:59:02 51°16.134 2°44.328 -999 3.469551 32.916194 7.461677
2009-04-02 06:59:06 51°16.144 2°44.314 -999 3.470484 32.926018 7.392029
2009-04-02 06:59:12 51°16.159 2°44.292 -999 3.470484 32.926018 7.392029
2009-04-02 06:59:17 51°16.171 2°44.275 -999 3.471416 32.936698 7.322381
2009-04-02 06:59:22 51°16.184 2°44.258 -999 3.472141 32.943484 7.287557
2009-04-02 06:59:27 51°16.196 2°44.241 -999 3.472763 32.949178 7.217908
2009-04-02 06:59:32 51°16.208 2°44.223 -999 3.47297 32.950506 7.113436
2009-04-02 06:59:37 51°16.221 2°44.206 -999 3.473592 32.96048 7.043788
2009-04-02 06:59:42 51°16.233 2°44.188 -999 3.473592 32.96048 7.043788
2009-04-02 06:59:46 51°16.244 2°44.174 -999 3.473902 32.966325 7.008964
2009-04-02 06:59:52 51°16.259 2°44.153 -999 3.474524 32.973733 7.008964
2009-04-02 06:59:57 51°16.271 2°44.136 -999 3.475353 32.98504 7.008964
2009-04-02 07:00:02 51°16.283 2°44.117 -999 3.476389 32.996819 7.008964
2009-04-02 07:00:06 51°16.293 2°44.103 -999 3.477632 33.011641 7.043788
2009-04-02 07:00:12 51°16.308 2°44.082 -999 3.477632 33.011641 7.043788
2009-04-02 07:00:17 51°16.32 2°44.064 -999 3.478668 33.023422 7.043788
2009-04-02 07:00:22 51°16.333 2°44.047 -999 3.479497 33.03302 7.043788
2009-04-02 07:00:27 51°16.345 2°44.029 -999 3.480222 33.040668 7.043788
2009-04-02 07:00:32 51°16.358 2°44.012 -999 3.480844 33.048081 7.043788
2009-04-02 07:00:37 51°16.371 2°43.995 -999 3.481154 33.051359 7.078612
2009-04-02 07:00:42 51°16.384 2°43.978 -999 3.481154 33.051359 7.078612
2009-04-02 07:00:47 51°16.396 2°43.959 -999 3.481258 33.053311 7.113436
2009-04-02 07:00:52 51°16.408 2°43.942 -999 3.481465 33.056355 7.078612
2009-04-02 07:00:57 51°16.421 2°43.924 -999 3.481672 33.060259 7.078612
2009-04-02 07:01:02 51°16.433 2°43.906 -999 3.481776 33.06307 7.078612
2009-04-02 07:01:06 51°16.443 2°43.892 -999 3.481776 33.065649 7.043788
2009-04-02 07:01:12 51°16.458 2°43.869 -999 3.481776 33.065649 7.043788
2009-04-02 07:01:17 51°16.47 2°43.852 -999 3.481673 33.067134 7.043788
2009-04-02 07:01:22 51°16.481 2°43.832 -999 3.481155 33.065108 7.043788
2009-04-02 07:01:27 51°16.494 2°43.816 -999 3.480429 33.061755 7.078612
2009-04-02 07:01:32 51°16.506 2°43.797 -999 3.479497 33.057075 7.008964
2009-04-02 07:01:37 51°16.518 2°43.779 -999 3.478668 33.056066 7.078612
2009-04-02 07:01:42 51°16.53 2°43.76 -999 3.478668 33.056066 7.078612
2009-04-02 07:01:47 51°16.542 2°43.742 -999 3.477943 33.052711 7.113436
2009-04-02 07:01:52 51°16.554 2°43.723 -999 3.476493 33.045999 7.113436
2009-04-02 07:01:57 51°16.566 2°43.705 -999 3.475354 33.040847 7.14826
2009-04-02 07:02:02 51°16.578 2°43.688 -999 3.474007 33.033505 7.183084
2009-04-02 07:02:06 51°16.588 2°43.672 -999 3.472349 33.022878 7.217908
2009-04-02 07:02:12 51°16.602 2°43.65 -999 3.472349 33.022878 7.217908
2009-04-02 07:02:17 51°16.614 2°43.631 -999 3.470692 33.010529 7.217908
2009-04-02 07:02:22 51°16.626 2°43.613 -999 3.469034 32.999896 7.217908
2009-04-02 07:02:26 51°16.636 2°43.598 -999 3.467584 32.988871 7.252733
2009-04-02 07:02:32 51°16.65 2°43.577 -999 3.46603 32.97589 7.287557
2009-04-02 07:02:37 51°16.662 2°43.558 -999 3.464166 32.9622 7.322381
2009-04-02 07:02:42 51°16.675 2°43.541 -999 3.464166 32.9622 7.322381
2009-04-02 07:02:47 51°16.687 2°43.522 -999 3.462094 32.946318 7.322381
2009-04-02 07:02:52 51°16.699 2°43.504 -999 3.460436 32.932236 7.322381
2009-04-02 07:02:57 51°16.711 2°43.487 -999 3.458468 32.914009 7.392029
2009-04-02 07:03:02 51°16.724 2°43.468 -999 3.456293 32.895308 7.322381
2009-04-02 07:03:06 51°16.733 2°43.454 -999 3.454221 32.878556 7.392029
2009-04-02 07:03:12 51°16.747 2°43.432 -999 3.454221 32.878556 7.392029
2009-04-02 07:03:17 51°16.76 2°43.414 -999 3.45246 32.868516 7.461677
2009-04-02 07:03:22 51°16.772 2°43.396 -999 3.450181 32.856426 7.461677
2009-04-02 07:03:26 51°16.781 2°43.381 -999 3.447591 32.837613 7.600973
2009-04-02 07:03:32 51°16.795 2°43.36 -999 3.445623 32.825368 7.635797
2009-04-02 07:03:37 51°16.807 2°43.341 -999 3.443862 32.815311 7.705445
2009-04-02 07:03:42 51°16.819 2°43.324 -999 3.443862 32.815311 7.705445
2009-04-02 07:03:47 51°16.831 2°43.305 -999 3.442515 32.80792 7.775093
2009-04-02 07:03:52 51°16.843 2°43.288 -999 3.440547 32.797379 7.809917
2009-04-02 07:03:57 51°16.855 2°43.269 -999 3.438994 32.78779 7.844741
2009-04-02 07:04:02 51°16.867 2°43.251 -999 3.437543 32.781009 7.984038
2009-04-02 07:04:06 51°16.876 2°43.236 -999 3.436197 32.777896 8.018862
2009-04-02 07:04:12 51°16.891 2°43.214 -999 3.436197 32.777896 8.018862
2009-04-02 07:04:17 51°16.903 2°43.195 -999 3.435368 32.773406 8.08851
2009-04-02 07:04:22 51°16.914 2°43.176 -999 3.434332 32.767579 8.192982
2009-04-02 07:04:26 51°16.924 2°43.161 -999 3.4334 32.764564 8.158158
2009-04-02 07:04:32 51°16.938 2°43.138 -999 3.432675 32.762885 8.192982
2009-04-02 07:04:37 51°16.95 2°43.119 -999 3.431536 32.755099 8.192982
2009-04-02 07:04:42 51°16.962 2°43.102 -999 3.431536 32.755099 8.192982
2009-04-02 07:04:47 51°16.973 2°43.083 -999 3.430189 32.747689 8.158158
2009-04-02 07:04:52 51°16.985 2°43.064 -999 3.429464 32.743435 8.123334
2009-04-02 07:04:57 51°16.997 2°43.045 -999 3.428428 32.735028 8.08851
2009-04-02 07:05:02 51°17.008 2°43.026 -999 3.4276 32.728816 8.123334
2009-04-02 07:05:07 51°17.02 2°43.007 -999 3.426667 32.719791 8.018862
2009-04-02 07:05:12 51°17.032 2°42.988 -999 3.426667 32.719791 8.018862
2009-04-02 07:05:17 51°17.043 2°42.969 -999 3.425735 32.713338 8.018862
2009-04-02 07:05:22 51°17.055 2°42.951 -999 3.424906 32.708838 8.053686
2009-04-02 07:05:26 51°17.064 2°42.935 -999 3.424181 32.705436 8.08851
2009-04-02 07:05:32 51°17.077 2°42.912 -999 3.423974 32.704097 8.123334
2009-04-02 07:05:37 51°17.089 2°42.893 -999 3.423974 32.705811 8.26263
2009-04-02 07:05:42 51°17.1 2°42.873 -999 3.423974 32.705811 8.26263
2009-04-02 07:05:46 51°17.11 2°42.858 -999 3.423871 32.707285 8.26263
2009-04-02 07:05:52 51°17.123 2°42.835 -999 3.423871 32.709857 8.471574
2009-04-02 07:05:57 51°17.134 2°42.815 -999 3.423871 32.713288 8.610871
2009-04-02 07:06:02 51°17.146 2°42.796 -999 3.423871 32.716719 8.784991
2009-04-02 07:06:06 51°17.155 2°42.78 -999 3.423871 32.719293 8.854639
2009-04-02 07:06:12 51°17.169 2°42.757 -999 3.423871 32.719293 8.854639
2009-04-02 07:06:17 51°17.181 2°42.738 -999 3.423871 32.720151 8.959111
2009-04-02 07:06:22 51°17.192 2°42.718 -999 3.423974 32.72125 8.993935
2009-04-02 07:06:26 51°17.201 2°42.702 -999 3.424182 32.724306 8.959111
2009-04-02 07:06:32 51°17.215 2°42.679 -999 3.424389 32.726504 8.924287
2009-04-02 07:06:37 51°17.226 2°42.659 -999 3.424596 32.728701 8.854639
2009-04-02 07:06:42 51°17.238 2°42.639 -999 3.424596 32.728701 8.854639
2009-04-02 07:06:46 51°17.247 2°42.623 -999 3.424907 32.731998 8.819815
2009-04-02 07:06:52 51°17.261 2°42.599 -999 3.425528 32.738592 8.854639
2009-04-02 07:06:57 51°17.273 2°42.58 -999 3.426253 32.744568 8.854639
2009-04-02 07:07:02 51°17.284 2°42.56 -999 3.427082 32.750783 8.819815
2009-04-02 07:07:07 51°17.296 2°42.541 -999 3.428221 32.758577 8.819815
2009-04-02 07:07:12 51°17.307 2°42.52 -999 3.428221 32.758577 8.819815
2009-04-02 07:07:17 51°17.319 2°42.501 -999 3.429154 32.765889 8.784991
2009-04-02 07:07:22 51°17.331 2°42.481 -999 3.430293 32.776258 8.750167
2009-04-02 07:07:26 51°17.34 2°42.465 -999 3.431432 32.785767 8.750167
2009-04-02 07:07:32 51°17.355 2°42.441 -999 3.432468 32.794176 8.645695
2009-04-02 07:07:37 51°17.367 2°42.422 -999 3.433711 32.804782 8.715343
2009-04-02 07:07:42 51°17.379 2°42.402 -999 3.433711 32.804782 8.715343
2009-04-02 07:07:46 51°17.388 2°42.386 -999 3.434954 32.814527 8.715343
2009-04-02 07:07:52 51°17.402 2°42.363 -999 3.436405 32.826467 8.784991
2009-04-02 07:07:57 51°17.414 2°42.343 -999 3.438166 32.841703 8.889463
2009-04-02 07:08:02 51°17.426 2°42.323 -999 3.439719 32.853018 8.924287
2009-04-02 07:08:06 51°17.436 2°42.308 -999 3.441791 32.870684 9.098407
2009-04-02 07:08:12 51°17.449 2°42.284 -999 3.441791 32.870684 9.098407
2009-04-02 07:08:17 51°17.462 2°42.265 -999 3.443449 32.883093 9.098407
2009-04-02 07:08:22 51°17.474 2°42.245 -999 3.444899 32.894164 9.20288
2009-04-02 07:08:26 51°17.483 2°42.229 -999 3.446453 32.905469 9.377
2009-04-02 07:08:32 51°17.498 2°42.205 -999 3.447903 32.915675 9.272528
2009-04-02 07:08:37 51°17.509 2°42.186 -999 3.449353 32.92674 9.272528
2009-04-02 07:08:42 51°17.522 2°42.166 -999 3.449353 32.92674 9.272528
2009-04-02 07:08:46 51°17.531 2°42.15 -999 3.45101 32.940861 9.272528
2009-04-02 07:08:52 51°17.545 2°42.126 -999 3.452875 32.957176 9.20288
2009-04-02 07:08:57 51°17.557 2°42.106 -999 3.454325 32.968236 9.272528
2009-04-02 07:09:02 51°17.569 2°42.086 -999 3.455672 32.979058 9.237704
2009-04-02 07:09:06 51°17.578 2°42.07 -999 3.457019 32.990742 9.20288
2009-04-02 07:09:12 51°17.592 2°42.046 -999 3.457019 32.990742 9.20288
2009-04-02 07:09:17 51°17.605 2°42.028 -999 3.458158 33.001093 9.168055
2009-04-02 07:09:22 51°17.616 2°42.007 -999 3.458883 33.007051 9.098407
2009-04-02 07:09:27 51°17.628 2°41.987 -999 3.458987 33.006423 8.924287
2009-04-02 07:09:32 51°17.639 2°41.967 -999 3.458987 33.006423 8.854639
2009-04-02 07:09:37 51°17.651 2°41.948 -999 3.458573 33.002032 8.750167
2009-04-02 07:09:42 51°17.663 2°41.929 -999 3.458573 33.002032 8.750167
2009-04-02 07:09:46 51°17.673 2°41.913 -999 3.458055 32.997406 8.680519
2009-04-02 07:09:52 51°17.687 2°41.89 -999 3.457226 32.990349 8.541223
2009-04-02 07:09:57 51°17.699 2°41.872 -999 3.456294 32.983057 8.43675
2009-04-02 07:10:02 51°17.711 2°41.852 -999 3.455258 32.974667 8.367102
2009-04-02 07:10:06 51°17.721 2°41.837 -999 3.454222 32.968 8.297454
2009-04-02 07:10:12 51°17.736 2°41.814 -999 3.454222 32.968 8.297454
2009-04-02 07:10:17 51°17.747 2°41.794 -999 3.452979 32.960862 8.158158
2009-04-02 07:10:22 51°17.76 2°41.775 -999 3.451425 32.946977 8.123334
2009-04-02 07:10:27 51°17.772 2°41.756 -999 3.450078 32.935288 8.053686
2009-04-02 07:10:32 51°17.784 2°41.736 -999 3.448732 32.923598 7.984038
2009-04-02 07:10:37 51°17.796 2°41.717 -999 3.447281 32.913394 7.844741
2009-04-02 07:10:42 51°17.809 2°41.698 -999 3.447281 32.913394 7.844741
2009-04-02 07:10:46 51°17.818 2°41.682 -999 3.44666 32.907666 7.775093
2009-04-02 07:10:52 51°17.833 2°41.659 -999 3.446142 32.903036 7.844741
2009-04-02 07:10:57 51°17.845 2°41.641 -999 3.445935 32.901701 7.740269
2009-04-02 07:11:02 51°17.857 2°41.621 -999 3.446142 32.903898 7.740269
2009-04-02 07:11:06 51°17.867 2°41.607 -999 3.446763 32.909626 7.670621
2009-04-02 07:11:12 51°17.881 2°41.583 -999 3.446763 32.909626 7.670621
2009-04-02 07:11:17 51°17.893 2°41.565 -999 3.447696 32.916063 7.600973
2009-04-02 07:11:22 51°17.905 2°41.546 -999 3.449146 32.928853 7.566149
2009-04-02 07:11:27 51°17.917 2°41.528 -999 3.450596 32.941641 7.531325
2009-04-02 07:11:32 51°17.929 2°41.508 -999 3.452461 32.957096 7.496501
2009-04-02 07:11:37 51°17.941 2°41.489 -999 3.454429 32.972784 7.461677
2009-04-02 07:11:42 51°17.953 2°41.469 -999 3.454429 32.972784 7.461677
2009-04-02 07:11:46 51°17.962 2°41.454 -999 3.456708 32.991763 7.426853
2009-04-02 07:11:52 51°17.976 2°41.431 -999 3.459298 33.01317 7.357205
2009-04-02 07:11:57 51°17.988 2°41.411 -999 3.462198 33.038729 7.252733
2009-04-02 07:12:02 51°17.999 2°41.392 -999 3.464581 33.058795 7.14826
2009-04-02 07:12:06 51°18.009 2°41.376 -999 3.467274 33.083016 7.043788
2009-04-02 07:12:12 51°18.022 2°41.353 -999 3.467274 33.083016 7.043788
2009-04-02 07:12:17 51°18.034 2°41.334 -999 3.470175 33.111161 6.97414
2009-04-02 07:12:22 51°18.045 2°41.315 -999 3.472661 33.134914 6.904492
2009-04-02 07:12:26 51°18.054 2°41.299 -999 3.474837 33.157105 6.834844
2009-04-02 07:12:32 51°18.068 2°41.277 -999 3.476805 33.177969 6.80002
2009-04-02 07:12:37 51°18.079 2°41.258 -999 3.478359 33.195309 6.765196
2009-04-02 07:12:42 51°18.091 2°41.239 -999 3.478359 33.195309 6.765196
2009-04-02 07:12:47 51°18.102 2°41.22 -999 3.479603 33.208489 6.695548
2009-04-02 07:12:52 51°18.114 2°41.202 -999 3.480639 33.222077 6.695548
2009-04-02 07:12:57 51°18.125 2°41.182 -999 3.481571 33.236308 6.730372
2009-04-02 07:13:02 51°18.137 2°41.163 -999 3.482193 33.245508 6.730372
2009-04-02 07:13:06 51°18.145 2°41.148 -999 3.482814 33.256449 6.765196
2009-04-02 07:13:12 51°18.158 2°41.124 -999 3.482814 33.256449 6.765196
2009-04-02 07:13:17 51°18.17 2°41.106 -999 3.483229 33.263454 6.834844
2009-04-02 07:13:22 51°18.181 2°41.087 -999 3.483643 33.272202 6.904492
2009-04-02 07:13:26 51°18.19 2°41.071 -999 3.48385 33.278753 6.869668
2009-04-02 07:13:32 51°18.203 2°41.048 -999 3.48385 33.281365 6.939316
2009-04-02 07:13:37 51°18.215 2°41.029 -999 3.483954 33.285077 6.939316
2009-04-02 07:13:42 51°18.225 2°41.008 -999 3.483954 33.285077 6.939316
2009-04-02 07:13:46 51°18.235 2°40.994 -999 3.483954 33.286819 6.939316
2009-04-02 07:13:52 51°18.248 2°40.969 -999 3.484058 33.289661 6.939316
2009-04-02 07:13:57 51°18.26 2°40.95 -999 3.484161 33.294246 7.008964
2009-04-02 07:14:02 51°18.271 2°40.93 -999 3.484058 33.294889 7.043788
2009-04-02 07:14:06 51°18.279 2°40.914 -999 3.484161 33.297732 7.008964
2009-04-02 07:14:12 51°18.293 2°40.891 -999 3.484161 33.297732 7.008964
2009-04-02 07:14:17 51°18.304 2°40.871 -999 3.484161 33.300347 7.043788
2009-04-02 07:14:22 51°18.316 2°40.852 -999 3.484265 33.302319 7.043788
2009-04-02 07:14:27 51°18.326 2°40.832 -999 3.484369 33.304291 7.043788
2009-04-02 07:14:32 51°18.338 2°40.814 -999 3.484576 33.309107 7.008964
2009-04-02 07:14:37 51°18.349 2°40.793 -999 3.484783 33.313052 7.043788
2009-04-02 07:14:42 51°18.361 2°40.774 -999 3.484783 33.313052 7.043788
2009-04-02 07:14:46 51°18.37 2°40.759 -999 3.485094 33.315481 7.008964
2009-04-02 07:14:52 51°18.383 2°40.735 -999 3.485508 33.319009 7.113436
2009-04-02 07:14:57 51°18.395 2°40.716 -999 3.486026 33.323638 7.043788
2009-04-02 07:15:02 51°18.406 2°40.695 -999 3.486648 33.329367 6.904492
2009-04-02 07:15:06 51°18.415 2°40.681 -999 3.487373 33.337068 6.939316
2009-04-02 07:15:12 51°18.429 2°40.657 -999 3.487373 33.337068 6.939316
2009-04-02 07:15:17 51°18.441 2°40.638 -999 3.487995 33.342797 6.939316
2009-04-02 07:15:22 51°18.452 2°40.618 -999 3.488823 33.349853 6.939316
2009-04-02 07:15:26 51°18.462 2°40.604 -999 3.489549 33.356682 6.939316
2009-04-02 07:15:32 51°18.475 2°40.581 -999 3.490481 33.364837 6.939316
2009-04-02 07:15:37 51°18.487 2°40.562 -999 3.491206 33.370792 6.939316
2009-04-02 07:15:42 51°18.498 2°40.542 -999 3.491206 33.370792 6.939316
2009-04-02 07:15:46 51°18.508 2°40.527 -999 3.492242 33.380921 6.939316
2009-04-02 07:15:52 51°18.521 2°40.503 -999 3.492967 33.387749 6.904492
2009-04-02 07:15:57 51°18.533 2°40.484 -999 3.493693 33.394577 6.765196
2009-04-02 07:16:02 51°18.544 2°40.465 -999 3.494107 33.398978 6.695548
2009-04-02 07:16:06 51°18.553 2°40.449 -999 3.494418 33.401405 6.6259
2009-04-02 07:16:12 51°18.567 2°40.426 -999 3.494418 33.401405 6.6259
2009-04-02 07:16:17 51°18.577 2°40.406 -999 3.494729 33.404706 6.556251
2009-04-02 07:16:22 51°18.588 2°40.387 -999 3.494936 33.406032 6.451779
2009-04-02 07:16:26 51°18.597 2°40.373 -999 3.494936 33.406032 6.382131
2009-04-02 07:16:32 51°18.609 2°40.349 -999 3.494832 33.404932 6.312483
2009-04-02 07:16:37 51°18.621 2°40.33 -999 3.494729 33.404706 6.208011
2009-04-02 07:16:42 51°18.631 2°40.31 -999 3.494729 33.404706 6.208011
2009-04-02 07:16:46 51°18.64 2°40.294 -999 3.494625 33.403605 6.208011
2009-04-02 07:16:52 51°18.654 2°40.271 -999 3.494625 33.402731 6.208011
2009-04-02 07:16:57 51°18.664 2°40.25 -999 3.494936 33.405158 6.208011
2009-04-02 07:17:02 51°18.676 2°40.231 -999 3.495557 33.410885 6.173187
2009-04-02 07:17:06 51°18.684 2°40.214 -999 3.496283 33.416838 6.208011
2009-04-02 07:17:12 51°18.698 2°40.191 -999 3.496283 33.416838 6.208011
2009-04-02 07:17:17 51°18.708 2°40.17 -999 3.497422 33.426316 6.173187
2009-04-02 07:17:22 51°18.719 2°40.15 -999 3.498044 33.430293 6.103539
2009-04-02 07:17:27 51°18.73 2°40.13 -999 3.498769 33.436245 6.068715
2009-04-02 07:17:32 51°18.741 2°40.11 -999 3.49908 33.43867 6.103539
2009-04-02 07:17:37 51°18.751 2°40.09 -999 3.499183 33.43977 6.033891
2009-04-02 07:17:42 51°18.762 2°40.07 -999 3.499183 33.43977 6.033891
2009-04-02 07:17:46 51°18.771 2°40.054 -999 3.49908 33.437795 6.033891
2009-04-02 07:17:52 51°18.783 2°40.028 -999 3.498873 33.433846 5.964243
2009-04-02 07:17:57 51°18.794 2°40.008 -999 3.498873 33.432097 5.999067
2009-04-02 07:18:02 51°18.805 2°39.988 -999 3.498769 33.430997 5.929418
2009-04-02 07:18:06 51°18.813 2°39.971 -999 3.498562 33.43142 5.929418
2009-04-02 07:18:12 51°18.826 2°39.948 -999 3.498562 33.43142 5.929418
2009-04-02 07:18:17 51°18.837 2°39.927 -999 3.498147 33.429644 5.929418
2009-04-02 07:18:22 51°18.847 2°39.907 -999 3.497837 33.428093 5.894594
2009-04-02 07:18:26 51°18.856 2°39.891 -999 3.497526 33.426542 5.929418
2009-04-02 07:18:32 51°18.869 2°39.866 -999 3.497319 33.424341 5.894594
2009-04-02 07:18:37 51°18.88 2°39.846 -999 3.497111 33.423016 5.894594
2009-04-02 07:18:42 51°18.891 2°39.825 -999 3.497111 33.423016 5.894594
2009-04-02 07:18:46 51°18.9 2°39.809 -999 3.497008 33.421915 5.85977
2009-04-02 07:18:52 51°18.913 2°39.785 -999 3.497008 33.421915 5.824946
2009-04-02 07:18:57 51°18.924 2°39.764 -999 3.496801 33.42059 5.790122
2009-04-02 07:19:02 51°18.935 2°39.744 -999 3.496697 33.420364 5.824946
2009-04-02 07:19:06 51°18.943 2°39.727 -999 3.496697 33.420364 5.790122
2009-04-02 07:19:12 51°18.957 2°39.703 -999 3.496697 33.420364 5.790122
2009-04-02 07:19:17 51°18.968 2°39.682 -999 3.496697 33.419489 5.790122
2009-04-02 07:19:22 51°18.979 2°39.661 -999 3.496593 33.418389 5.720474
2009-04-02 07:19:26 51°18.988 2°39.645 -999 3.496593 33.419264 5.755298
2009-04-02 07:19:32 51°19.001 2°39.62 -999 3.49649 33.418163 5.720474
2009-04-02 07:19:37 51°19.013 2°39.6 -999 3.49649 33.418163 5.720474
2009-04-02 07:19:42 51°19.024 2°39.579 -999 3.49649 33.418163 5.720474
2009-04-02 07:19:46 51°19.033 2°39.563 -999 3.496386 33.417063 5.755298
2009-04-02 07:19:52 51°19.046 2°39.538 -999 3.496283 33.415963 5.720474
2009-04-02 07:19:57 51°19.057 2°39.518 -999 3.496386 33.417938 5.720474
2009-04-02 07:20:02 51°19.068 2°39.497 -999 3.496593 33.420138 5.68565
2009-04-02 07:20:06 51°19.076 2°39.481 -999 3.496801 33.422339 5.720474
2009-04-02 07:20:12 51°19.089 2°39.456 -999 3.496801 33.422339 5.720474
2009-04-02 07:20:17 51°19.1 2°39.435 -999 3.496904 33.425188 5.720474
2009-04-02 07:20:22 51°19.111 2°39.415 -999 3.496697 33.423863 5.720474
2009-04-02 07:20:26 51°19.119 2°39.398 -999 3.496593 33.422762 5.755298
2009-04-02 07:20:32 51°19.134 2°39.374 -999 3.496386 33.420562 5.755298
2009-04-02 07:20:37 51°19.144 2°39.353 -999 3.496075 33.417261 5.720474
2009-04-02 07:20:42 51°19.155 2°39.333 -999 3.496075 33.417261 5.720474
2009-04-02 07:20:46 51°19.164 2°39.316 -999 3.495868 33.41506 5.755298
2009-04-02 07:20:52 51°19.177 2°39.291 -999 3.495661 33.411985 5.755298
2009-04-02 07:20:57 51°19.187 2°39.271 -999 3.495661 33.411111 5.790122
2009-04-02 07:21:02 51°19.198 2°39.251 -999 3.495765 33.413085 5.755298
2009-04-02 07:21:06 51°19.207 2°39.234 -999 3.496283 33.416838 5.790122
2009-04-02 07:21:12 51°19.22 2°39.209 -999 3.496283 33.416838 5.790122
2009-04-02 07:21:17 51°19.231 2°39.188 -999 3.497111 33.42389 5.790122
2009-04-02 07:21:22 51°19.242 2°39.167 -999 3.497837 33.429842 5.790122
2009-04-02 07:21:26 51°19.251 2°39.15 -999 3.498562 33.435794 5.790122
2009-04-02 07:21:32 51°19.264 2°39.126 -999 3.499287 33.44087 5.68565
2009-04-02 07:21:37 51°19.273 2°39.104 -999 3.500323 33.450122 5.755298
2009-04-02 07:21:42 51°19.284 2°39.083 -999 3.500323 33.450122 5.755298
2009-04-02 07:21:46 51°19.292 2°39.066 -999 3.501359 33.460248 5.68565
2009-04-02 07:21:52 51°19.304 2°39.04 -999 3.502188 33.468173 5.68565
2009-04-02 07:21:57 51°19.314 2°39.019 -999 3.50312 33.476324 5.650826
2009-04-02 07:22:02 51°19.324 2°38.998 -999 3.503846 33.482273 5.650826
2009-04-02 07:22:06 51°19.332 2°38.98 -999 3.504571 33.488222 5.650826